Wetterdaten: Montag, 02.01.2023
Datum Zeit Temp. Aussen Temp. o. S. Temp +5cm Feuchte Auss Luftdruck Regen Sonnenschein Regendauer Solar Windben Empfang
02.01.2023 00:00 11,4 C 11,1 C 6,7 C 94 % 1012,1 hPa 0,0 l/m 0 min 0 min 0 W/m 12,9 km/h (3 Bft) 95,74 %
02.01.2023 00:02 11,4 C 11,1 C 6,7 C 94 % 1012,1 hPa 0,0 l/m 0 min 0 min 0 W/m 12,9 km/h (3 Bft) 90,70 %
02.01.2023 00:04 11,4 C 11,1 C 6,7 C 94 % 1012,2 hPa 0,0 l/m 0 min 0 min 0 W/m 12,9 km/h (3 Bft) 93,62 %
02.01.2023 00:07 11,5 C 11,1 C 6,7 C 94 % 1012,0 hPa 0,0 l/m 0 min 0 min 0 W/m 16,1 km/h (3 Bft) 94,29 %
02.01.2023 00:14 11,5 C 11,1 C 6,7 C 94 % 1012,0 hPa 0,0 l/m 0 min 5 min 0 W/m 12,9 km/h (3 Bft) 96,34 %
02.01.2023 00:16 11,5 C 11,1 C 6,7 C 94 % 1012,0 hPa 0,0 l/m 0 min 2 min 0 W/m 12,9 km/h (3 Bft) 97,87 %
02.01.2023 00:18 11,6 C 11,1 C 6,7 C 94 % 1011,9 hPa 0,0 l/m 0 min 2 min 0 W/m 16,1 km/h (3 Bft) 100,00 %
02.01.2023 00:20 11,6 C 11,1 C 6,7 C 94 % 1012,0 hPa 0,0 l/m 0 min 2 min 0 W/m 16,1 km/h (3 Bft) 100,00 %
02.01.2023 00:22 11,6 C 11,1 C 6,7 C 94 % 1011,9 hPa 0,0 l/m 0 min 2 min 0 W/m 19,3 km/h (3 Bft) 100,00 %
02.01.2023 00:24 11,6 C 11,1 C 6,7 C 94 % 1012,0 hPa 0,0 l/m 0 min 2 min 0 W/m 16,1 km/h (3 Bft) 100,00 %
02.01.2023 00:26 11,6 C 11,1 C 6,7 C 94 % 1012,0 hPa 0,0 l/m 0 min 2 min 0 W/m 12,9 km/h (3 Bft) 100,00 %
02.01.2023 00:28 11,6 C 11,1 C 6,7 C 94 % 1012,0 hPa 0,0 l/m 0 min 0 min 0 W/m 12,9 km/h (3 Bft) 97,87 %
02.01.2023 00:30 11,6 C 11,1 C 6,7 C 94 % 1011,9 hPa 0,0 l/m 0 min 0 min 0 W/m 12,9 km/h (3 Bft) 100,00 %
02.01.2023 00:32 11,6 C 11,1 C 6,7 C 94 % 1011,9 hPa 0,0 l/m 0 min 0 min 0 W/m 16,1 km/h (3 Bft) 100,00 %
02.01.2023 00:34 11,6 C 11,1 C 6,7 C 93 % 1011,9 hPa 0,0 l/m 0 min 0 min 0 W/m 16,1 km/h (3 Bft) 100,00 %
02.01.2023 00:36 11,6 C 11,1 C 6,7 C 93 % 1011,8 hPa 0,0 l/m 0 min 0 min 0 W/m 16,1 km/h (3 Bft) 97,87 %
02.01.2023 00:38 11,7 C 11,1 C 6,7 C 93 % 1011,8 hPa 0,0 l/m 0 min 0 min 0 W/m 22,5 km/h (4 Bft) 100,00 %
02.01.2023 00:40 11,7 C 11,1 C 6,7 C 93 % 1011,8 hPa 0,0 l/m 0 min 0 min 0 W/m 16,1 km/h (3 Bft) 100,00 %
02.01.2023 00:42 11,7 C 11,1 C 6,7 C 93 % 1011,8 hPa 0,0 l/m 0 min 0 min 0 W/m 16,1 km/h (3 Bft) 97,83 %
02.01.2023 00:44 11,7 C 11,1 C 6,7 C 93 % 1011,9 hPa 0,0 l/m 0 min 0 min 0 W/m 16,1 km/h (3 Bft) 100,00 %
02.01.2023 00:46 11,7 C 11,1 C 6,7 C 93 % 1011,9 hPa 0,0 l/m 0 min 0 min 0 W/m 16,1 km/h (3 Bft) 100,00 %
02.01.2023 00:48 11,8 C 11,7 C 7,2 C 93 % 1011,8 hPa 0,0 l/m 0 min 0 min 0 W/m 19,3 km/h (3 Bft) 100,00 %
02.01.2023 00:50 11,8 C 11,7 C 7,2 C 93 % 1011,8 hPa 0,0 l/m 0 min 0 min 0 W/m 16,1 km/h (3 Bft) 97,87 %
02.01.2023 00:52 11,8 C 11,7 C 7,2 C 93 % 1011,8 hPa 0,0 l/m 0 min 0 min 0 W/m 19,3 km/h (3 Bft) 97,87 %
02.01.2023 00:54 11,8 C 11,7 C 7,2 C 93 % 1011,8 hPa 0,0 l/m 0 min 0 min 0 W/m 16,1 km/h (3 Bft) 95,65 %
02.01.2023 00:56 11,8 C 11,7 C 7,2 C 93 % 1011,8 hPa 0,0 l/m 0 min 0 min 0 W/m 12,9 km/h (3 Bft) 94,00 %
02.01.2023 00:58 11,9 C 11,7 C 7,2 C 92 % 1011,8 hPa 0,0 l/m 0 min 0 min 0 W/m 12,9 km/h (3 Bft) 97,87 %
02.01.2023 01:00 11,9 C 11,7 C 7,2 C 92 % 1011,9 hPa 0,0 l/m 0 min 0 min 0 W/m 12,9 km/h (3 Bft) 97,87 %
02.01.2023 01:02 11,9 C 11,7 C 7,2 C 92 % 1011,8 hPa 0,0 l/m 0 min 0 min 0 W/m 9,7 km/h (2 Bft) 97,22 %
02.01.2023 01:04 11,9 C 11,7 C 7,2 C 92 % 1011,8 hPa 0,0 l/m 0 min 0 min 0 W/m 16,1 km/h (3 Bft) 94,55 %
02.01.2023 01:06 11,9 C 11,7 C 7,8 C 92 % 1011,8 hPa 0,0 l/m 0 min 0 min 0 W/m 16,1 km/h (3 Bft) 95,65 %
02.01.2023 01:08 12,0 C 11,7 C 7,8 C 92 % 1011,8 hPa 0,0 l/m 0 min 0 min 0 W/m 16,1 km/h (3 Bft) 95,74 %
02.01.2023 01:10 12,0 C 11,7 C 7,8 C 92 % 1011,8 hPa 0,0 l/m 0 min 0 min 0 W/m 16,1 km/h (3 Bft) 95,74 %
02.01.2023 01:12 12,0 C 11,7 C 7,8 C 92 % 1011,9 hPa 0,0 l/m 0 min 0 min 0 W/m 6,4 km/h (2 Bft) 95,74 %
02.01.2023 01:14 12,1 C 11,7 C 7,8 C 92 % 1011,8 hPa 0,0 l/m 0 min 0 min 0 W/m 12,9 km/h (3 Bft) 95,74 %
02.01.2023 01:16 12,1 C 11,7 C 7,8 C 92 % 1011,8 hPa 0,0 l/m 0 min 0 min 0 W/m 12,9 km/h (3 Bft) 97,87 %
02.01.2023 01:18 12,1 C 11,7 C 7,8 C 92 % 1011,8 hPa 0,0 l/m 0 min 0 min 0 W/m 9,7 km/h (2 Bft) 97,83 %
02.01.2023 01:20 12,1 C 11,7 C 7,8 C 92 % 1011,9 hPa 0,0 l/m 0 min 0 min 0 W/m 6,4 km/h (2 Bft) 95,74 %
02.01.2023 01:22 12,1 C 11,7 C 7,8 C 91 % 1011,8 hPa 0,0 l/m 0 min 0 min 0 W/m 6,4 km/h (2 Bft) 95,74 %
02.01.2023 01:24 12,1 C 11,7 C 7,8 C 91 % 1011,8 hPa 0,0 l/m 0 min 0 min 0 W/m 6,4 km/h (2 Bft) 93,62 %
02.01.2023 01:26 12,1 C 11,7 C 7,8 C 91 % 1011,8 hPa 0,0 l/m 0 min 0 min 0 W/m 12,9 km/h (3 Bft) 95,74 %
02.01.2023 01:28 12,1 C 11,7 C 7,8 C 91 % 1011,9 hPa 0,0 l/m 0 min 0 min 0 W/m 6,4 km/h (2 Bft) 95,74 %
02.01.2023 01:30 12,1 C 11,7 C 7,8 C 91 % 1011,9 hPa 0,0 l/m 0 min 0 min 0 W/m 6,4 km/h (2 Bft) 95,65 %
02.01.2023 01:32 12,2 C 11,7 C 7,8 C 91 % 1011,8 hPa 0,0 l/m 0 min 0 min 0 W/m 12,9 km/h (3 Bft) 93,62 %
02.01.2023 01:34 12,2 C 12,2 C 7,8 C 91 % 1011,9 hPa 0,0 l/m 0 min 0 min 0 W/m 9,7 km/h (2 Bft) 95,74 %
02.01.2023 01:36 12,3 C 12,2 C 7,8 C 91 % 1011,9 hPa 0,0 l/m 0 min 0 min 0 W/m 9,7 km/h (2 Bft) 95,74 %
02.01.2023 01:38 12,3 C 12,2 C 7,8 C 91 % 1011,8 hPa 0,0 l/m 0 min 0 min 0 W/m 6,4 km/h (2 Bft) 91,49 %
02.01.2023 01:40 12,3 C 12,2 C 7,8 C 91 % 1011,8 hPa 0,0 l/m 0 min 0 min 0 W/m 9,7 km/h (2 Bft) 95,74 %
02.01.2023 01:42 12,4 C 12,2 C 7,8 C 91 % 1011,8 hPa 0,0 l/m 0 min 0 min 0 W/m 12,9 km/h (3 Bft) 95,65 %
02.01.2023 01:44 12,4 C 12,2 C 7,8 C 91 % 1011,8 hPa 0,0 l/m 0 min 0 min 0 W/m 9,7 km/h (2 Bft) 95,74 %
02.01.2023 01:46 12,6 C 12,2 C 7,8 C 90 % 1011,8 hPa 0,0 l/m 0 min 0 min 0 W/m 16,1 km/h (3 Bft) 91,49 %
02.01.2023 01:48 12,6 C 12,8 C 8,3 C 90 % 1011,7 hPa 0,0 l/m 0 min 0 min 0 W/m 12,9 km/h (3 Bft) 97,87 %
02.01.2023 01:50 12,7 C 12,8 C 8,3 C 90 % 1011,7 hPa 0,0 l/m 0 min 0 min 0 W/m 19,3 km/h (3 Bft) 95,74 %
02.01.2023 01:52 12,9 C 12,8 C 8,3 C 90 % 1011,7 hPa 0,0 l/m 0 min 2 min 0 W/m 19,3 km/h (3 Bft) 97,87 %
02.01.2023 01:54 13,1 C 13,3 C 8,3 C 89 % 1011,8 hPa 0,0 l/m 0 min 2 min 0 W/m 29,0 km/h (5 Bft) 97,83 %
02.01.2023 01:56 13,2 C 12,8 C 7,8 C 89 % 1011,7 hPa 0,0 l/m 0 min 2 min 0 W/m 22,5 km/h (4 Bft) 91,49 %
02.01.2023 01:58 13,4 C 12,8 C 7,8 C 89 % 1011,8 hPa 0,2 l/m 0 min 2 min 0 W/m 22,5 km/h (4 Bft) 97,87 %
02.01.2023 02:00 13,4 C 12,8 C 7,8 C 88 % 1011,8 hPa 0,0 l/m 0 min 2 min 0 W/m 19,3 km/h (3 Bft) 56,52 %
02.01.2023 02:02 13,5 C 12,2 C 7,8 C 88 % 1011,7 hPa 0,0 l/m 0 min 2 min 0 W/m 35,4 km/h (5 Bft) 95,74 %
02.01.2023 02:04 13,6 C 12,2 C 7,8 C 88 % 1011,7 hPa 0,0 l/m 0 min 2 min 0 W/m 25,7 km/h (4 Bft) 91,49 %
02.01.2023 02:06 13,6 C 12,2 C 7,8 C 88 % 1011,6 hPa 0,0 l/m 0 min 2 min 0 W/m 19,3 km/h (3 Bft) 95,65 %
02.01.2023 02:08 13,7 C 12,2 C 7,8 C 88 % 1011,7 hPa 0,0 l/m 0 min 2 min 0 W/m 25,7 km/h (4 Bft) 95,74 %
02.01.2023 02:10 13,7 C 12,2 C 7,8 C 88 % 1011,6 hPa 0,2 l/m 0 min 2 min 0 W/m 29,0 km/h (5 Bft) 97,87 %
02.01.2023 02:12 13,7 C 12,2 C 7,8 C 88 % 1011,6 hPa 0,0 l/m 0 min 2 min 0 W/m 32,2 km/h (5 Bft) 97,87 %
02.01.2023 02:14 13,7 C 12,2 C 7,8 C 88 % 1011,7 hPa 0,0 l/m 0 min 2 min 0 W/m 25,7 km/h (4 Bft) 95,74 %
02.01.2023 02:16 13,7 C 12,2 C 7,8 C 88 % 1011,6 hPa 0,0 l/m 0 min 2 min 0 W/m 16,1 km/h (3 Bft) 93,62 %
02.01.2023 02:18 13,7 C 12,2 C 7,8 C 88 % 1011,6 hPa 0,0 l/m 0 min 2 min 0 W/m 19,3 km/h (3 Bft) 97,83 %
02.01.2023 02:20 13,6 C 12,2 C 7,8 C 89 % 1011,6 hPa 0,0 l/m 0 min 2 min 0 W/m 12,9 km/h (3 Bft) 97,87 %
02.01.2023 02:22 13,6 C 12,2 C 7,8 C 89 % 1011,6 hPa 0,0 l/m 0 min 2 min 0 W/m 9,7 km/h (2 Bft) 97,87 %
02.01.2023 02:24 13,6 C 12,2 C 7,8 C 89 % 1011,6 hPa 0,0 l/m 0 min 2 min 0 W/m 19,3 km/h (3 Bft) 97,87 %
02.01.2023 02:26 13,6 C 12,2 C 7,8 C 89 % 1011,5 hPa 0,0 l/m 0 min 2 min 0 W/m 12,9 km/h (3 Bft) 93,62 %
02.01.2023 02:28 13,5 C 12,2 C 7,8 C 89 % 1011,5 hPa 0,0 l/m 0 min 2 min 0 W/m 16,1 km/h (3 Bft) 97,87 %
02.01.2023 02:30 13,5 C 12,2 C 7,8 C 89 % 1011,5 hPa 0,0 l/m 0 min 2 min 0 W/m 6,4 km/h (2 Bft) 97,83 %
02.01.2023 02:32 13,4 C 12,2 C 7,8 C 89 % 1011,4 hPa 0,0 l/m 0 min 2 min 0 W/m 6,4 km/h (2 Bft) 97,87 %
02.01.2023 02:34 13,4 C 12,2 C 7,8 C 89 % 1011,4 hPa 0,0 l/m 0 min 2 min 0 W/m 6,4 km/h (2 Bft) 95,74 %
02.01.2023 02:36 13,4 C 12,2 C 7,8 C 90 % 1011,4 hPa 0,0 l/m 0 min 0 min 0 W/m 9,7 km/h (2 Bft) 95,74 %
02.01.2023 02:38 13,4 C 12,2 C 7,8 C 89 % 1011,4 hPa 0,0 l/m 0 min 0 min 0 W/m 6,4 km/h (2 Bft) 97,87 %
02.01.2023 02:40 13,3 C 12,2 C 7,8 C 90 % 1011,4 hPa 0,0 l/m 0 min 0 min 0 W/m 6,4 km/h (2 Bft) 97,87 %
02.01.2023 02:42 13,3 C 12,2 C 7,8 C 90 % 1011,4 hPa 0,0 l/m 0 min 0 min 0 W/m 6,4 km/h (2 Bft) 100,00 %
02.01.2023 02:44 13,3 C 12,2 C 7,8 C 90 % 1011,4 hPa 0,0 l/m 0 min 0 min 0 W/m 12,9 km/h (3 Bft) 100,00 %
02.01.2023 02:46 13,3 C 12,2 C 7,8 C 90 % 1011,4 hPa 0,0 l/m 0 min 0 min 0 W/m 6,4 km/h (2 Bft) 97,87 %
02.01.2023 02:48 13,2 C 12,2 C 7,8 C 90 % 1011,4 hPa 0,0 l/m 0 min 2 min 0 W/m 12,9 km/h (3 Bft) 97,87 %
02.01.2023 02:50 13,2 C 12,2 C 7,8 C 90 % 1011,4 hPa 0,0 l/m 0 min 2 min 0 W/m 12,9 km/h (3 Bft) 100,00 %
02.01.2023 02:52 13,2 C 12,2 C 7,8 C 90 % 1011,5 hPa 0,0 l/m 0 min 2 min 0 W/m 12,9 km/h (3 Bft) 100,00 %
02.01.2023 02:54 13,2 C 12,2 C 7,8 C 90 % 1011,5 hPa 0,0 l/m 0 min 2 min 0 W/m 6,4 km/h (2 Bft) 100,00 %
02.01.2023 02:56 13,1 C 11,7 C 7,2 C 90 % 1011,5 hPa 0,0 l/m 0 min 2 min 0 W/m 6,4 km/h (2 Bft) 100,00 %
02.01.2023 02:58 13,1 C 11,7 C 7,2 C 90 % 1011,5 hPa 0,2 l/m 0 min 2 min 0 W/m 12,9 km/h (3 Bft) 100,00 %
02.01.2023 03:00 13,1 C 11,7 C 7,2 C 90 % 1011,5 hPa 0,0 l/m 0 min 2 min 0 W/m 6,4 km/h (2 Bft) 100,00 %
02.01.2023 03:02 13,0 C 11,7 C 7,2 C 90 % 1011,5 hPa 0,0 l/m 0 min 0 min 0 W/m 12,9 km/h (3 Bft) 97,87 %
02.01.2023 03:04 13,0 C 11,7 C 7,2 C 90 % 1011,6 hPa 0,0 l/m 0 min 2 min 0 W/m 9,7 km/h (2 Bft) 97,56 %
02.01.2023 03:06 12,9 C 11,7 C 7,2 C 91 % 1011,6 hPa 0,0 l/m 0 min 2 min 0 W/m 6,4 km/h (2 Bft) 100,00 %
02.01.2023 03:08 12,9 C 11,7 C 7,2 C 91 % 1011,6 hPa 0,0 l/m 0 min 0 min 0 W/m 12,9 km/h (3 Bft) 100,00 %
02.01.2023 03:10 12,8 C 11,7 C 7,2 C 91 % 1011,6 hPa 0,0 l/m 0 min 2 min 0 W/m 9,7 km/h (2 Bft) 100,00 %
02.01.2023 03:12 12,8 C 11,7 C 7,2 C 91 % 1011,7 hPa 0,0 l/m 0 min 2 min 0 W/m 6,4 km/h (2 Bft) 100,00 %
02.01.2023 03:14 12,8 C 11,7 C 7,2 C 91 % 1011,6 hPa 0,0 l/m 0 min 2 min 0 W/m 12,9 km/h (3 Bft) 100,00 %
02.01.2023 03:16 12,8 C 12,2 C 7,2 C 91 % 1011,6 hPa 0,0 l/m 0 min 2 min 0 W/m 19,3 km/h (3 Bft) 100,00 %
02.01.2023 03:18 12,8 C 12,2 C 7,2 C 91 % 1011,7 hPa 0,0 l/m 0 min 2 min 0 W/m 19,3 km/h (3 Bft) 97,87 %
02.01.2023 03:20 12,8 C 12,2 C 7,8 C 91 % 1011,7 hPa 0,0 l/m 0 min 2 min 0 W/m 29,0 km/h (5 Bft) 97,87 %
02.01.2023 03:22 12,9 C 12,2 C 7,8 C 91 % 1011,7 hPa 0,0 l/m 0 min 2 min 0 W/m 25,7 km/h (4 Bft) 97,83 %
02.01.2023 03:24 12,9 C 12,2 C 7,8 C 91 % 1011,8 hPa 0,0 l/m 0 min 2 min 0 W/m 22,5 km/h (4 Bft) 97,87 %
02.01.2023 03:26 13,0 C 12,2 C 7,8 C 90 % 1011,8 hPa 0,0 l/m 0 min 2 min 0 W/m 12,9 km/h (3 Bft) 97,87 %
02.01.2023 03:28 13,1 C 12,2 C 7,8 C 90 % 1011,8 hPa 0,0 l/m 0 min 2 min 0 W/m 16,1 km/h (3 Bft) 97,87 %
02.01.2023 03:30 13,1 C 12,2 C 7,8 C 90 % 1011,8 hPa 0,2 l/m 0 min 2 min 0 W/m 22,5 km/h (4 Bft) 97,87 %
02.01.2023 03:32 13,1 C 12,2 C 7,8 C 90 % 1011,8 hPa 0,0 l/m 0 min 2 min 0 W/m 22,5 km/h (4 Bft) 95,74 %
02.01.2023 03:34 13,1 C 12,2 C 7,8 C 90 % 1011,8 hPa 0,0 l/m 0 min 2 min 0 W/m 19,3 km/h (3 Bft) 95,65 %
02.01.2023 03:36 13,2 C 12,2 C 7,8 C 90 % 1011,7 hPa 0,0 l/m 0 min 2 min 0 W/m 19,3 km/h (3 Bft) 97,87 %
02.01.2023 03:38 13,2 C 12,2 C 7,8 C 90 % 1011,6 hPa 0,0 l/m 0 min 2 min 0 W/m 16,1 km/h (3 Bft) 97,87 %
02.01.2023 03:40 13,2 C 12,2 C 7,8 C 90 % 1011,5 hPa 0,0 l/m 0 min 2 min 0 W/m 12,9 km/h (3 Bft) 97,87 %
02.01.2023 03:42 13,2 C 12,2 C 7,8 C 90 % 1011,4 hPa 0,0 l/m 0 min 2 min 0 W/m 19,3 km/h (3 Bft) 97,87 %
02.01.2023 03:44 13,2 C 12,2 C 7,8 C 90 % 1011,3 hPa 0,2 l/m 0 min 2 min 0 W/m 16,1 km/h (3 Bft) 97,87 %
02.01.2023 03:46 13,2 C 12,2 C 7,8 C 90 % 1011,4 hPa 0,0 l/m 0 min 2 min 0 W/m 25,7 km/h (4 Bft) 97,83 %
02.01.2023 03:48 13,2 C 12,2 C 7,8 C 90 % 1011,5 hPa 0,0 l/m 0 min 2 min 0 W/m 16,1 km/h (3 Bft) 97,87 %
02.01.2023 03:50 13,2 C 12,2 C 7,8 C 90 % 1011,6 hPa 0,0 l/m 0 min 2 min 0 W/m 22,5 km/h (4 Bft) 100,00 %
02.01.2023 03:52 13,2 C 12,2 C 7,8 C 90 % 1011,5 hPa 0,0 l/m 0 min 2 min 0 W/m 19,3 km/h (3 Bft) 100,00 %
02.01.2023 03:54 13,2 C 12,2 C 7,8 C 90 % 1011,5 hPa 0,0 l/m 0 min 2 min 0 W/m 19,3 km/h (3 Bft) 100,00 %
02.01.2023 03:56 13,2 C 12,2 C 7,8 C 90 % 1011,3 hPa 0,0 l/m 0 min 2 min 0 W/m 35,4 km/h (5 Bft) 100,00 %
02.01.2023 03:58 13,2 C 12,2 C 7,8 C 90 % 1011,5 hPa 0,0 l/m 0 min 2 min 0 W/m 35,4 km/h (5 Bft) 97,83 %
02.01.2023 04:00 13,3 C 12,2 C 7,8 C 89 % 1011,6 hPa 0,0 l/m 0 min 2 min 0 W/m 32,2 km/h (5 Bft) 95,74 %
02.01.2023 04:02 13,3 C 12,2 C 7,8 C 89 % 1011,7 hPa 0,0 l/m 0 min 2 min 0 W/m 16,1 km/h (3 Bft) 96,67 %
02.01.2023 04:04 13,3 C 11,7 C 7,8 C 89 % 1011,6 hPa 0,0 l/m 0 min 2 min 0 W/m 16,1 km/h (3 Bft) 97,87 %
02.01.2023 04:06 13,2 C 12,2 C 7,8 C 89 % 1011,7 hPa 0,0 l/m 0 min 2 min 0 W/m 29,0 km/h (5 Bft) 97,87 %
02.01.2023 04:08 13,2 C 12,2 C 7,8 C 89 % 1011,7 hPa 0,2 l/m 0 min 2 min 0 W/m 19,3 km/h (3 Bft) 95,74 %
02.01.2023 04:10 13,2 C 11,7 C 7,8 C 89 % 1011,7 hPa 0,0 l/m 0 min 2 min 0 W/m 25,7 km/h (4 Bft) 97,83 %
02.01.2023 04:12 13,2 C 11,7 C 7,8 C 90 % 1011,8 hPa 0,0 l/m 0 min 2 min 0 W/m 19,3 km/h (3 Bft) 93,62 %
02.01.2023 04:14 13,2 C 11,7 C 7,8 C 90 % 1011,8 hPa 0,0 l/m 0 min 2 min 0 W/m 32,2 km/h (5 Bft) 91,49 %
02.01.2023 04:16 13,2 C 11,7 C 7,8 C 90 % 1011,7 hPa 0,0 l/m 0 min 2 min 0 W/m 19,3 km/h (3 Bft) 97,87 %
02.01.2023 04:18 13,2 C 11,7 C 7,8 C 90 % 1011,6 hPa 0,0 l/m 0 min 2 min 0 W/m 19,3 km/h (3 Bft) 95,74 %
02.01.2023 04:20 13,1 C 11,7 C 7,8 C 90 % 1011,6 hPa 0,0 l/m 0 min 2 min 0 W/m 16,1 km/h (3 Bft) 97,87 %
02.01.2023 04:22 13,1 C 11,7 C 7,8 C 90 % 1011,6 hPa 0,0 l/m 0 min 2 min 0 W/m 16,1 km/h (3 Bft) 95,65 %
02.01.2023 04:24 13,1 C 11,7 C 7,8 C 90 % 1011,6 hPa 0,2 l/m 0 min 2 min 0 W/m 16,1 km/h (3 Bft) 95,74 %
02.01.2023 04:26 13,1 C 11,7 C 7,8 C 90 % 1011,7 hPa 0,0 l/m 0 min 2 min 0 W/m 25,7 km/h (4 Bft) 95,74 %
02.01.2023 04:28 13,1 C 11,7 C 7,8 C 90 % 1011,7 hPa 0,0 l/m 0 min 2 min 0 W/m 19,3 km/h (3 Bft) 95,74 %
02.01.2023 04:30 13,0 C 11,7 C 7,8 C 90 % 1011,6 hPa 0,2 l/m 0 min 2 min 0 W/m 25,7 km/h (4 Bft) 93,62 %
02.01.2023 04:32 13,0 C 11,7 C 7,8 C 91 % 1011,5 hPa 0,0 l/m 0 min 2 min 0 W/m 16,1 km/h (3 Bft) 95,65 %
02.01.2023 04:34 13,0 C 11,7 C 7,8 C 91 % 1011,6 hPa 0,0 l/m 0 min 2 min 0 W/m 16,1 km/h (3 Bft) 95,74 %
02.01.2023 04:36 12,9 C 11,7 C 7,8 C 91 % 1011,6 hPa 0,0 l/m 0 min 2 min 0 W/m 16,1 km/h (3 Bft) 91,49 %
02.01.2023 04:38 12,9 C 11,7 C 7,8 C 91 % 1011,6 hPa 0,2 l/m 0 min 2 min 0 W/m 12,9 km/h (3 Bft) 93,62 %
02.01.2023 04:40 12,9 C 11,7 C 7,8 C 91 % 1011,8 hPa 0,0 l/m 0 min 2 min 0 W/m 12,9 km/h (3 Bft) 95,74 %
02.01.2023 04:42 12,8 C 11,7 C 7,8 C 91 % 1011,7 hPa 0,0 l/m 0 min 2 min 0 W/m 6,4 km/h (2 Bft) 93,62 %
02.01.2023 04:44 12,8 C 11,7 C 7,8 C 91 % 1011,7 hPa 0,0 l/m 0 min 2 min 0 W/m 12,9 km/h (3 Bft) 95,65 %
02.01.2023 04:46 12,8 C 11,7 C 7,8 C 91 % 1011,6 hPa 0,0 l/m 0 min 2 min 0 W/m 22,5 km/h (4 Bft) 95,74 %
02.01.2023 04:48 12,8 C 11,7 C 7,8 C 92 % 1011,8 hPa 0,2 l/m 0 min 2 min 0 W/m 16,1 km/h (3 Bft) 97,87 %
02.01.2023 04:50 12,7 C 11,7 C 7,8 C 92 % 1011,8 hPa 0,0 l/m 0 min 2 min 0 W/m 12,9 km/h (3 Bft) 97,87 %
02.01.2023 04:52 12,7 C 11,7 C 7,8 C 92 % 1011,8 hPa 0,0 l/m 0 min 2 min 0 W/m 16,1 km/h (3 Bft) 97,87 %
02.01.2023 04:54 12,7 C 11,7 C 7,8 C 92 % 1011,8 hPa 0,0 l/m 0 min 2 min 0 W/m 22,5 km/h (4 Bft) 93,62 %
02.01.2023 04:56 12,7 C 11,7 C 7,8 C 92 % 1011,8 hPa 0,0 l/m 0 min 2 min 0 W/m 22,5 km/h (4 Bft) 97,83 %
02.01.2023 04:58 12,7 C 11,7 C 7,8 C 92 % 1011,8 hPa 0,0 l/m 0 min 2 min 0 W/m 25,7 km/h (4 Bft) 97,87 %
02.01.2023 05:00 12,6 C 11,7 C 7,8 C 92 % 1011,8 hPa 0,0 l/m 0 min 2 min 0 W/m 19,3 km/h (3 Bft) 97,87 %
02.01.2023 05:02 12,6 C 11,7 C 7,8 C 92 % 1011,8 hPa 0,0 l/m 0 min 2 min 0 W/m 25,7 km/h (4 Bft) 97,87 %
02.01.2023 05:04 12,6 C 11,7 C 7,8 C 92 % 1011,8 hPa 0,0 l/m 0 min 2 min 0 W/m 12,9 km/h (3 Bft) 95,74 %
02.01.2023 05:06 12,6 C 11,7 C 7,8 C 92 % 1011,8 hPa 0,2 l/m 0 min 2 min 0 W/m 16,1 km/h (3 Bft) 100,00 %
02.01.2023 05:08 12,6 C 11,7 C 7,8 C 92 % 1011,8 hPa 0,0 l/m 0 min 2 min 0 W/m 19,3 km/h (3 Bft) 100,00 %
02.01.2023 05:10 12,6 C 11,7 C 7,8 C 92 % 1011,8 hPa 0,0 l/m 0 min 0 min 0 W/m 16,1 km/h (3 Bft) 100,00 %
02.01.2023 05:12 12,6 C 11,7 C 7,8 C 92 % 1011,9 hPa 0,0 l/m 0 min 2 min 0 W/m 22,5 km/h (4 Bft) 97,87 %
02.01.2023 05:14 12,6 C 11,7 C 7,8 C 92 % 1011,9 hPa 0,0 l/m 0 min 2 min 0 W/m 12,9 km/h (3 Bft) 97,87 %
02.01.2023 05:16 12,6 C 11,7 C 7,2 C 92 % 1011,9 hPa 0,0 l/m 0 min 2 min 0 W/m 25,7 km/h (4 Bft) 97,87 %
02.01.2023 05:18 12,5 C 11,7 C 7,8 C 92 % 1011,9 hPa 0,0 l/m 0 min 2 min 0 W/m 22,5 km/h (4 Bft) 97,87 %
02.01.2023 05:20 12,5 C 11,7 C 7,8 C 92 % 1011,9 hPa 0,0 l/m 0 min 2 min 0 W/m 12,9 km/h (3 Bft) 97,83 %
02.01.2023 05:22 12,5 C 11,7 C 7,2 C 92 % 1011,9 hPa 0,0 l/m 0 min 2 min 0 W/m 12,9 km/h (3 Bft) 97,87 %
02.01.2023 05:24 12,5 C 11,7 C 7,2 C 92 % 1012,0 hPa 0,0 l/m 0 min 2 min 0 W/m 22,5 km/h (4 Bft) 97,87 %
02.01.2023 05:26 12,5 C 11,7 C 7,2 C 92 % 1011,9 hPa 0,0 l/m 0 min 2 min 0 W/m 19,3 km/h (3 Bft) 97,87 %
02.01.2023 05:28 12,5 C 11,7 C 7,2 C 92 % 1011,9 hPa 0,0 l/m 0 min 2 min 0 W/m 12,9 km/h (3 Bft) 97,87 %
02.01.2023 05:30 12,5 C 11,7 C 7,2 C 92 % 1011,9 hPa 0,0 l/m 0 min 2 min 0 W/m 16,1 km/h (3 Bft) 97,87 %
02.01.2023 05:32 12,5 C 11,7 C 7,2 C 92 % 1011,9 hPa 0,0 l/m 0 min 0 min 0 W/m 19,3 km/h (3 Bft) 97,83 %
02.01.2023 05:34 12,5 C 11,7 C 7,2 C 92 % 1011,9 hPa 0,0 l/m 0 min 2 min 0 W/m 19,3 km/h (3 Bft) 97,87 %
02.01.2023 05:36 12,5 C 11,7 C 7,2 C 92 % 1011,9 hPa 0,0 l/m 0 min 2 min 0 W/m 19,3 km/h (3 Bft) 97,87 %
02.01.2023 05:38 12,6 C 11,7 C 7,2 C 92 % 1011,9 hPa 0,0 l/m 0 min 0 min 0 W/m 12,9 km/h (3 Bft) 95,74 %
02.01.2023 05:40 12,6 C 11,7 C 7,2 C 92 % 1011,9 hPa 0,0 l/m 0 min 0 min 0 W/m 16,1 km/h (3 Bft) 95,74 %
02.01.2023 05:42 12,5 C 11,7 C 7,2 C 92 % 1011,9 hPa 0,0 l/m 0 min 0 min 0 W/m 19,3 km/h (3 Bft) 97,87 %
02.01.2023 05:44 12,6 C 11,7 C 7,2 C 92 % 1011,9 hPa 0,0 l/m 0 min 0 min 0 W/m 22,5 km/h (4 Bft) 100,00 %
02.01.2023 05:46 12,6 C 11,7 C 7,2 C 92 % 1011,9 hPa 0,0 l/m 0 min 0 min 0 W/m 12,9 km/h (3 Bft) 100,00 %
02.01.2023 05:48 12,6 C 11,7 C 7,2 C 92 % 1011,9 hPa 0,0 l/m 0 min 0 min 0 W/m 25,7 km/h (4 Bft) 100,00 %
02.01.2023 05:50 12,6 C 11,7 C 7,2 C 92 % 1011,9 hPa 0,0 l/m 0 min 0 min 0 W/m 19,3 km/h (3 Bft) 100,00 %
02.01.2023 05:52 12,6 C 11,7 C 7,2 C 92 % 1011,9 hPa 0,0 l/m 0 min 0 min 0 W/m 19,3 km/h (3 Bft) 97,87 %
02.01.2023 05:54 12,6 C 12,2 C 7,2 C 91 % 1011,9 hPa 0,0 l/m 0 min 0 min 0 W/m 19,3 km/h (3 Bft) 100,00 %
02.01.2023 05:56 12,6 C 12,2 C 7,2 C 91 % 1012,0 hPa 0,0 l/m 0 min 0 min 0 W/m 19,3 km/h (3 Bft) 100,00 %
02.01.2023 05:58 12,7 C 12,2 C 7,2 C 91 % 1011,9 hPa 0,0 l/m 0 min 0 min 0 W/m 22,5 km/h (4 Bft) 100,00 %
02.01.2023 06:00 12,7 C 12,2 C 7,2 C 91 % 1012,0 hPa 0,0 l/m 0 min 2 min 0 W/m 22,5 km/h (4 Bft) 100,00 %
02.01.2023 06:02 12,7 C 12,2 C 7,2 C 91 % 1011,9 hPa 0,0 l/m 0 min 2 min 0 W/m 19,3 km/h (3 Bft) 100,00 %
02.01.2023 06:04 12,7 C 12,2 C 7,2 C 91 % 1012,0 hPa 0,0 l/m 0 min 0 min 0 W/m 22,5 km/h (4 Bft) 100,00 %
02.01.2023 06:07 12,8 C 12,2 C 7,2 C 90 % 1012,1 hPa 0,0 l/m 0 min 0 min 0 W/m 19,3 km/h (3 Bft) 98,57 %
02.01.2023 06:08 12,7 C 12,2 C 7,2 C 90 % 1012,1 hPa 0,0 l/m 0 min 0 min 0 W/m 12,9 km/h (3 Bft) 95,65 %
02.01.2023 06:10 12,8 C 12,2 C 7,2 C 90 % 1012,1 hPa 0,0 l/m 0 min 0 min 0 W/m 25,7 km/h (4 Bft) 100,00 %
02.01.2023 06:12 12,8 C 12,2 C 7,2 C 90 % 1012,2 hPa 0,0 l/m 0 min 0 min 0 W/m 19,3 km/h (3 Bft) 100,00 %
02.01.2023 06:14 12,8 C 12,2 C 7,2 C 90 % 1012,2 hPa 0,0 l/m 0 min 0 min 0 W/m 25,7 km/h (4 Bft) 100,00 %
02.01.2023 06:16 12,8 C 12,2 C 7,2 C 90 % 1012,2 hPa 0,0 l/m 0 min 0 min 0 W/m 22,5 km/h (4 Bft) 100,00 %
02.01.2023 06:18 12,8 C 12,2 C 7,2 C 90 % 1012,3 hPa 0,0 l/m 0 min 2 min 0 W/m 25,7 km/h (4 Bft) 100,00 %
02.01.2023 06:20 12,8 C 11,7 C 7,2 C 90 % 1012,2 hPa 0,0 l/m 0 min 2 min 0 W/m 19,3 km/h (3 Bft) 97,83 %
02.01.2023 06:22 12,8 C 11,7 C 7,2 C 90 % 1012,2 hPa 0,0 l/m 0 min 2 min 0 W/m 25,7 km/h (4 Bft) 97,87 %
02.01.2023 06:24 12,8 C 11,7 C 7,2 C 90 % 1012,3 hPa 0,0 l/m 0 min 0 min 0 W/m 25,7 km/h (4 Bft) 100,00 %
02.01.2023 06:26 12,9 C 12,2 C 7,2 C 89 % 1012,2 hPa 0,0 l/m 0 min 2 min 0 W/m 25,7 km/h (4 Bft) 100,00 %
02.01.2023 06:28 12,9 C 12,2 C 7,2 C 89 % 1012,3 hPa 0,0 l/m 0 min 2 min 0 W/m 25,7 km/h (4 Bft) 100,00 %
02.01.2023 06:30 12,9 C 11,7 C 7,2 C 89 % 1012,3 hPa 0,0 l/m 0 min 2 min 0 W/m 32,2 km/h (5 Bft) 100,00 %
02.01.2023 06:32 12,9 C 11,7 C 7,2 C 89 % 1012,4 hPa 0,0 l/m 0 min 2 min 0 W/m 32,2 km/h (5 Bft) 95,65 %
02.01.2023 06:34 12,9 C 11,7 C 7,2 C 89 % 1012,4 hPa 0,0 l/m 0 min 2 min 0 W/m 25,7 km/h (4 Bft) 97,87 %
02.01.2023 06:36 12,9 C 11,7 C 7,2 C 89 % 1012,3 hPa 0,0 l/m 0 min 2 min 0 W/m 29,0 km/h (5 Bft) 100,00 %
02.01.2023 06:38 12,9 C 11,7 C 7,2 C 89 % 1012,4 hPa 0,0 l/m 0 min 2 min 0 W/m 16,1 km/h (3 Bft) 85,11 %
02.01.2023 06:40 12,9 C 11,7 C 7,2 C 89 % 1012,4 hPa 0,0 l/m 0 min 2 min 0 W/m 16,1 km/h (3 Bft) 56,25 %
02.01.2023 06:42 12,9 C 11,7 C 7,2 C 89 % 1012,4 hPa 0,0 l/m 0 min 2 min 0 W/m 25,7 km/h (4 Bft) 100,00 %
02.01.2023 06:44 12,8 C 11,7 C 7,2 C 90 % 1012,4 hPa 0,0 l/m 0 min 2 min 0 W/m 12,9 km/h (3 Bft) 100,00 %
02.01.2023 06:46 12,8 C 11,7 C 7,2 C 90 % 1012,5 hPa 0,2 l/m 0 min 2 min 0 W/m 16,1 km/h (3 Bft) 97,87 %
02.01.2023 06:48 12,8 C 11,7 C 7,2 C 90 % 1012,5 hPa 0,0 l/m 0 min 2 min 0 W/m 25,7 km/h (4 Bft) 97,87 %
02.01.2023 06:50 12,8 C 11,7 C 7,2 C 90 % 1012,5 hPa 0,0 l/m 0 min 2 min 0 W/m 19,3 km/h (3 Bft) 95,74 %
02.01.2023 06:52 12,8 C 11,7 C 7,2 C 90 % 1012,5 hPa 0,0 l/m 0 min 2 min 0 W/m 19,3 km/h (3 Bft) 97,87 %
02.01.2023 06:54 12,8 C 11,7 C 7,2 C 90 % 1012,4 hPa 0,0 l/m 0 min 2 min 0 W/m 19,3 km/h (3 Bft) 97,87 %
02.01.2023 06:56 12,7 C 11,7 C 7,2 C 90 % 1012,4 hPa 0,0 l/m 0 min 2 min 0 W/m 25,7 km/h (4 Bft) 97,83 %
02.01.2023 06:58 12,7 C 11,7 C 7,2 C 90 % 1012,5 hPa 0,0 l/m 0 min 2 min 0 W/m 25,7 km/h (4 Bft) 97,87 %
02.01.2023 07:00 12,7 C 11,7 C 7,2 C 90 % 1012,5 hPa 0,0 l/m 0 min 2 min 0 W/m 25,7 km/h (4 Bft) 97,87 %
02.01.2023 07:02 12,7 C 11,7 C 7,2 C 90 % 1012,6 hPa 0,0 l/m 0 min 2 min 0 W/m 25,7 km/h (4 Bft) 97,87 %
02.01.2023 07:04 12,7 C 11,7 C 7,2 C 90 % 1012,5 hPa 0,0 l/m 0 min 2 min 0 W/m 35,4 km/h (5 Bft) 93,62 %
02.01.2023 07:06 12,7 C 11,7 C 7,2 C 90 % 1012,5 hPa 0,0 l/m 0 min 2 min 0 W/m 29,0 km/h (5 Bft) 93,62 %
02.01.2023 07:08 12,6 C 11,1 C 7,2 C 90 % 1012,5 hPa 0,0 l/m 0 min 2 min 0 W/m 22,5 km/h (4 Bft) 91,30 %
02.01.2023 07:10 12,6 C 11,1 C 7,2 C 91 % 1012,6 hPa 0,0 l/m 0 min 2 min 0 W/m 22,5 km/h (4 Bft) 91,49 %
02.01.2023 07:12 12,6 C 11,1 C 7,2 C 91 % 1012,6 hPa 0,0 l/m 0 min 2 min 0 W/m 25,7 km/h (4 Bft) 93,62 %
02.01.2023 07:14 12,6 C 11,1 C 7,2 C 91 % 1012,5 hPa 0,0 l/m 0 min 2 min 0 W/m 29,0 km/h (5 Bft) 93,62 %
02.01.2023 07:16 12,6 C 11,1 C 7,2 C 91 % 1012,5 hPa 0,2 l/m 0 min 2 min 0 W/m 22,5 km/h (4 Bft) 91,49 %
02.01.2023 07:18 12,6 C 11,1 C 7,2 C 91 % 1012,6 hPa 0,0 l/m 0 min 2 min 0 W/m 16,1 km/h (3 Bft) 93,62 %
02.01.2023 07:20 12,5 C 11,1 C 7,2 C 91 % 1012,6 hPa 0,0 l/m 0 min 2 min 0 W/m 29,0 km/h (5 Bft) 93,48 %
02.01.2023 07:22 12,5 C 11,1 C 7,2 C 91 % 1012,6 hPa 0,0 l/m 0 min 2 min 0 W/m 22,5 km/h (4 Bft) 93,62 %
02.01.2023 07:24 12,5 C 11,1 C 7,2 C 91 % 1012,6 hPa 0,0 l/m 0 min 2 min 0 W/m 25,7 km/h (4 Bft) 93,62 %
02.01.2023 07:26 12,5 C 11,1 C 7,2 C 91 % 1012,6 hPa 0,0 l/m 0 min 2 min 0 W/m 25,7 km/h (4 Bft) 95,74 %
02.01.2023 07:28 12,4 C 11,1 C 7,2 C 91 % 1012,7 hPa 0,0 l/m 0 min 2 min 0 W/m 32,2 km/h (5 Bft) 93,62 %
02.01.2023 07:30 12,4 C 11,1 C 7,2 C 92 % 1012,6 hPa 0,0 l/m 0 min 2 min 0 W/m 29,0 km/h (5 Bft) 91,49 %
02.01.2023 07:32 12,4 C 11,1 C 7,2 C 92 % 1012,7 hPa 0,0 l/m 0 min 2 min 0 W/m 29,0 km/h (5 Bft) 95,65 %
02.01.2023 07:34 12,4 C 11,1 C 7,2 C 92 % 1012,7 hPa 0,0 l/m 0 min 2 min 0 W/m 22,5 km/h (4 Bft) 97,87 %
02.01.2023 07:36 12,4 C 11,1 C 7,2 C 92 % 1012,7 hPa 0,0 l/m 0 min 2 min 0 W/m 19,3 km/h (3 Bft) 97,87 %
02.01.2023 07:38 12,3 C 11,1 C 7,2 C 92 % 1012,7 hPa 0,0 l/m 0 min 2 min 0 W/m 19,3 km/h (3 Bft) 97,87 %
02.01.2023 07:40 12,3 C 11,1 C 7,2 C 92 % 1012,8 hPa 0,0 l/m 0 min 2 min 0 W/m 25,7 km/h (4 Bft) 97,87 %
02.01.2023 07:42 12,3 C 11,1 C 7,2 C 92 % 1012,8 hPa 0,0 l/m 0 min 2 min 0 W/m 29,0 km/h (5 Bft) 97,87 %
02.01.2023 07:44 12,3 C 11,1 C 7,2 C 92 % 1012,9 hPa 0,0 l/m 0 min 2 min 0 W/m 19,3 km/h (3 Bft) 97,83 %
02.01.2023 07:46 12,3 C 11,1 C 7,2 C 92 % 1012,9 hPa 0,0 l/m 0 min 2 min 0 W/m 29,0 km/h (5 Bft) 95,74 %
02.01.2023 07:48 12,3 C 11,1 C 7,2 C 92 % 1012,9 hPa 0,0 l/m 0 min 2 min 0 W/m 16,1 km/h (3 Bft) 95,74 %
02.01.2023 07:50 12,3 C 11,1 C 7,2 C 92 % 1012,9 hPa 0,2 l/m 0 min 2 min 0 W/m 12,9 km/h (3 Bft) 95,74 %
02.01.2023 07:52 12,2 C 11,1 C 7,2 C 92 % 1012,9 hPa 0,0 l/m 0 min 2 min 0 W/m 22,5 km/h (4 Bft) 97,87 %
02.01.2023 07:54 12,2 C 11,1 C 7,2 C 92 % 1012,9 hPa 0,0 l/m 0 min 2 min 0 W/m 19,3 km/h (3 Bft) 97,87 %
02.01.2023 07:56 12,2 C 11,1 C 7,2 C 93 % 1012,9 hPa 0,0 l/m 0 min 2 min 0 W/m 22,5 km/h (4 Bft) 100,00 %
02.01.2023 07:58 12,2 C 11,1 C 7,2 C 93 % 1012,9 hPa 0,0 l/m 0 min 2 min 0 W/m 38,6 km/h (5 Bft) 100,00 %
02.01.2023 08:00 12,2 C 11,1 C 7,2 C 93 % 1012,9 hPa 0,0 l/m 0 min 2 min 0 W/m 29,0 km/h (5 Bft) 100,00 %
02.01.2023 08:02 12,2 C 11,1 C 7,2 C 93 % 1012,9 hPa 0,0 l/m 0 min 2 min 0 W/m 22,5 km/h (4 Bft) 97,87 %
02.01.2023 08:04 12,2 C 11,1 C 7,2 C 93 % 1012,9 hPa 0,0 l/m 0 min 2 min 0 W/m 32,2 km/h (5 Bft) 97,87 %
02.01.2023 08:06 12,2 C 11,1 C 7,2 C 93 % 1013,0 hPa 0,0 l/m 0 min 2 min 0 W/m 19,3 km/h (3 Bft) 97,87 %
02.01.2023 08:08 12,2 C 11,1 C 7,2 C 93 % 1013,1 hPa 0,0 l/m 0 min 2 min 0 W/m 16,1 km/h (3 Bft) 100,00 %
02.01.2023 08:10 12,2 C 11,1 C 7,2 C 93 % 1013,0 hPa 0,0 l/m 0 min 2 min 0 W/m 25,7 km/h (4 Bft) 100,00 %
02.01.2023 08:12 12,2 C 11,1 C 7,2 C 93 % 1013,1 hPa 0,0 l/m 0 min 2 min 0 W/m 38,6 km/h (5 Bft) 97,87 %
02.01.2023 08:14 12,2 C 11,1 C 7,2 C 93 % 1013,1 hPa 0,0 l/m 0 min 2 min 0 W/m 25,7 km/h (4 Bft) 100,00 %
02.01.2023 08:16 12,2 C 11,1 C 7,2 C 93 % 1013,1 hPa 0,0 l/m 0 min 2 min 0 W/m 25,7 km/h (4 Bft) 100,00 %
02.01.2023 08:18 12,2 C 11,1 C 7,2 C 93 % 1013,2 hPa 0,0 l/m 0 min 2 min 0 W/m 25,7 km/h (4 Bft) 97,87 %
02.01.2023 08:20 12,2 C 11,1 C 7,2 C 93 % 1013,2 hPa 0,0 l/m 0 min 2 min 0 W/m 29,0 km/h (5 Bft) 100,00 %
02.01.2023 08:22 12,1 C 11,1 C 7,2 C 93 % 1013,2 hPa 0,0 l/m 0 min 2 min 0 W/m 22,5 km/h (4 Bft) 97,87 %
02.01.2023 08:24 12,1 C 11,1 C 7,2 C 93 % 1013,2 hPa 0,0 l/m 0 min 2 min 0 W/m 32,2 km/h (5 Bft) 100,00 %
02.01.2023 08:26 12,1 C 11,1 C 7,2 C 93 % 1013,3 hPa 0,0 l/m 0 min 2 min 0 W/m 22,5 km/h (4 Bft) 100,00 %
02.01.2023 08:28 12,1 C 11,1 C 7,2 C 93 % 1013,3 hPa 0,0 l/m 0 min 2 min 0 W/m 19,3 km/h (3 Bft) 97,87 %
02.01.2023 08:30 12,1 C 11,1 C 7,2 C 93 % 1013,3 hPa 0,0 l/m 0 min 2 min 0 W/m 25,7 km/h (4 Bft) 100,00 %
02.01.2023 08:32 12,1 C 11,1 C 7,2 C 93 % 1013,4 hPa 0,0 l/m 0 min 2 min 0 W/m 25,7 km/h (4 Bft) 100,00 %
02.01.2023 08:34 12,1 C 11,1 C 7,2 C 93 % 1013,5 hPa 0,0 l/m 0 min 2 min 0 W/m 22,5 km/h (4 Bft) 100,00 %
02.01.2023 08:36 12,1 C 11,1 C 7,2 C 93 % 1013,5 hPa 0,2 l/m 0 min 2 min 0 W/m 35,4 km/h (5 Bft) 95,74 %
02.01.2023 08:38 12,1 C 11,1 C 7,2 C 93 % 1013,5 hPa 0,0 l/m 0 min 2 min 0 W/m 35,4 km/h (5 Bft) 100,00 %
02.01.2023 08:40 12,1 C 10,6 C 7,2 C 93 % 1013,5 hPa 0,0 l/m 0 min 2 min 0 W/m 16,1 km/h (3 Bft) 100,00 %
02.01.2023 08:42 12,1 C 10,6 C 7,2 C 93 % 1013,6 hPa 0,0 l/m 0 min 2 min 0 W/m 29,0 km/h (5 Bft) 97,87 %
02.01.2023 08:44 12,1 C 10,6 C 7,2 C 93 % 1013,6 hPa 0,0 l/m 0 min 2 min 0 W/m 22,5 km/h (4 Bft) 97,83 %
02.01.2023 08:46 12,0 C 10,6 C 7,2 C 93 % 1013,6 hPa 0,0 l/m 0 min 2 min 0 W/m 19,3 km/h (3 Bft) 97,87 %
02.01.2023 08:48 12,0 C 11,1 C 7,2 C 93 % 1013,6 hPa 0,2 l/m 0 min 2 min 0 W/m 25,7 km/h (4 Bft) 100,00 %
02.01.2023 08:50 12,0 C 11,1 C 7,2 C 93 % 1013,7 hPa 0,0 l/m 0 min 2 min 0 W/m 29,0 km/h (5 Bft) 100,00 %
02.01.2023 08:52 12,0 C 10,6 C 7,2 C 93 % 1013,7 hPa 0,0 l/m 0 min 2 min 0 W/m 25,7 km/h (4 Bft) 100,00 %
02.01.2023 08:54 11,9 C 10,6 C 7,2 C 94 % 1013,7 hPa 0,0 l/m 0 min 2 min 0 W/m 32,2 km/h (5 Bft) 95,65 %
02.01.2023 08:56 11,9 C 10,6 C 7,2 C 94 % 1013,7 hPa 0,0 l/m 0 min 2 min 0 W/m 16,1 km/h (3 Bft) 97,87 %
02.01.2023 08:58 11,9 C 10,6 C 7,2 C 94 % 1013,8 hPa 0,0 l/m 0 min 2 min 0 W/m 25,7 km/h (4 Bft) 93,62 %
02.01.2023 09:00 11,9 C 10,6 C 7,2 C 94 % 1013,9 hPa 0,0 l/m 0 min 2 min 0 W/m 25,7 km/h (4 Bft) 97,87 %
02.01.2023 09:02 11,9 C 10,6 C 7,2 C 94 % 1013,9 hPa 0,2 l/m 0 min 2 min 0 W/m 12,9 km/h (3 Bft) 93,62 %
02.01.2023 09:04 11,8 C 10,6 C 7,2 C 94 % 1013,9 hPa 0,0 l/m 0 min 2 min 0 W/m 19,3 km/h (3 Bft) 97,96 %
02.01.2023 09:06 11,8 C 10,6 C 7,2 C 94 % 1014,0 hPa 0,0 l/m 0 min 2 min 5 W/m 19,3 km/h (3 Bft) 95,65 %
02.01.2023 09:08 11,8 C 10,6 C 7,2 C 94 % 1014,0 hPa 0,2 l/m 0 min 2 min 5 W/m 19,3 km/h (3 Bft) 95,74 %
02.01.2023 09:10 11,8 C 10,6 C 7,2 C 94 % 1013,9 hPa 0,0 l/m 0 min 2 min 6 W/m 22,5 km/h (4 Bft) 97,87 %
02.01.2023 09:12 11,8 C 10,6 C 7,2 C 94 % 1014,0 hPa 0,0 l/m 0 min 2 min 7 W/m 19,3 km/h (3 Bft) 95,74 %
02.01.2023 09:14 11,8 C 10,6 C 7,2 C 94 % 1014,1 hPa 0,0 l/m 0 min 2 min 8 W/m 19,3 km/h (3 Bft) 95,74 %
02.01.2023 09:16 11,8 C 10,6 C 7,2 C 94 % 1014,1 hPa 0,0 l/m 0 min 2 min 10 W/m 16,1 km/h (3 Bft) 95,74 %
02.01.2023 09:18 11,8 C 10,6 C 7,2 C 94 % 1014,2 hPa 0,0 l/m 0 min 2 min 12 W/m 35,4 km/h (5 Bft) 93,48 %
02.01.2023 09:20 11,8 C 10,6 C 7,2 C 94 % 1014,3 hPa 0,0 l/m 0 min 2 min 14 W/m 25,7 km/h (4 Bft) 95,74 %
02.01.2023 09:22 11,8 C 10,6 C 7,2 C 94 % 1014,3 hPa 0,0 l/m 0 min 2 min 17 W/m 29,0 km/h (5 Bft) 93,62 %
02.01.2023 09:24 11,8 C 10,6 C 7,2 C 95 % 1014,3 hPa 0,0 l/m 0 min 2 min 19 W/m 25,7 km/h (4 Bft) 93,62 %
02.01.2023 09:26 11,8 C 10,6 C 7,2 C 95 % 1014,3 hPa 0,0 l/m 0 min 2 min 21 W/m 35,4 km/h (5 Bft) 95,74 %
02.01.2023 09:28 11,8 C 10,6 C 7,2 C 95 % 1014,4 hPa 0,0 l/m 0 min 2 min 15 W/m 29,0 km/h (5 Bft) 97,87 %
02.01.2023 09:30 11,8 C 10,6 C 7,2 C 95 % 1014,7 hPa 0,4 l/m 0 min 2 min 8 W/m 25,7 km/h (4 Bft) 97,83 %
02.01.2023 09:32 11,8 C 10,6 C 7,2 C 95 % 1014,9 hPa 0,4 l/m 0 min 2 min 7 W/m 16,1 km/h (3 Bft) 97,87 %
02.01.2023 09:34 11,7 C 10,0 C 7,2 C 95 % 1015,0 hPa 0,0 l/m 0 min 2 min 8 W/m 25,7 km/h (4 Bft) 97,87 %
02.01.2023 09:36 11,4 C 10,0 C 6,7 C 94 % 1015,0 hPa 0,2 l/m 0 min 2 min 10 W/m 16,1 km/h (3 Bft) 97,87 %
02.01.2023 09:38 11,3 C 9,4 C 6,7 C 94 % 1015,1 hPa 0,0 l/m 0 min 2 min 11 W/m 19,3 km/h (3 Bft) 97,87 %
02.01.2023 09:40 11,1 C 9,4 C 6,7 C 94 % 1015,2 hPa 0,2 l/m 0 min 2 min 12 W/m 19,3 km/h (3 Bft) 97,87 %
02.01.2023 09:42 10,9 C 9,4 C 6,7 C 94 % 1015,1 hPa 0,0 l/m 0 min 2 min 14 W/m 22,5 km/h (4 Bft) 95,65 %
02.01.2023 09:44 10,8 C 9,4 C 6,7 C 94 % 1015,2 hPa 0,0 l/m 0 min 2 min 18 W/m 16,1 km/h (3 Bft) 97,87 %
02.01.2023 09:46 10,7 C 9,4 C 6,1 C 94 % 1015,3 hPa 0,0 l/m 0 min 2 min 19 W/m 19,3 km/h (3 Bft) 97,87 %
02.01.2023 09:48 10,6 C 9,4 C 6,1 C 94 % 1015,4 hPa 0,0 l/m 0 min 0 min 22 W/m 19,3 km/h (3 Bft) 97,87 %
02.01.2023 09:50 10,5 C 9,4 C 6,1 C 94 % 1015,4 hPa 0,0 l/m 0 min 0 min 24 W/m 16,1 km/h (3 Bft) 97,87 %
02.01.2023 09:52 10,4 C 9,4 C 6,1 C 94 % 1015,5 hPa 0,0 l/m 0 min 2 min 25 W/m 16,1 km/h (3 Bft) 95,74 %
02.01.2023 09:54 10,4 C 9,4 C 6,1 C 94 % 1015,5 hPa 0,0 l/m 0 min 2 min 28 W/m 6,4 km/h (2 Bft) 100,00 %
02.01.2023 09:56 10,4 C 9,4 C 6,1 C 94 % 1015,5 hPa 0,2 l/m 0 min 0 min 33 W/m 16,1 km/h (3 Bft) 100,00 %
02.01.2023 09:58 10,3 C 9,4 C 6,1 C 94 % 1015,5 hPa 0,0 l/m 0 min 0 min 35 W/m 12,9 km/h (3 Bft) 100,00 %
02.01.2023 10:00 10,3 C 9,4 C 6,1 C 94 % 1015,5 hPa 0,0 l/m 0 min 0 min 38 W/m 16,1 km/h (3 Bft) 100,00 %
02.01.2023 10:02 10,3 C 9,4 C 6,1 C 94 % 1015,6 hPa 0,0 l/m 0 min 0 min 39 W/m 6,4 km/h (2 Bft) 100,00 %
02.01.2023 10:04 10,3 C 9,4 C 6,1 C 95 % 1015,5 hPa 0,0 l/m 0 min 0 min 38 W/m 9,7 km/h (2 Bft) 100,00 %
02.01.2023 10:06 10,3 C 9,4 C 6,1 C 95 % 1015,6 hPa 0,0 l/m 0 min 0 min 39 W/m 3,2 km/h (1 Bft) 97,83 %
02.01.2023 10:08 10,3 C 9,4 C 6,1 C 95 % 1015,6 hPa 0,0 l/m 0 min 0 min 39 W/m 6,4 km/h (2 Bft) 95,74 %
02.01.2023 10:10 10,3 C 9,4 C 6,1 C 95 % 1015,7 hPa 0,0 l/m 0 min 0 min 39 W/m 6,4 km/h (2 Bft) 97,87 %
02.01.2023 10:12 10,3 C 9,4 C 6,1 C 95 % 1015,8 hPa 0,0 l/m 0 min 0 min 41 W/m 3,2 km/h (1 Bft) 97,87 %
02.01.2023 10:14 10,3 C 9,4 C 6,1 C 95 % 1015,8 hPa 0,0 l/m 0 min 0 min 43 W/m 6,4 km/h (2 Bft) 97,87 %
02.01.2023 10:16 10,2 C 9,4 C 6,1 C 95 % 1016,0 hPa 0,0 l/m 0 min 0 min 47 W/m 6,4 km/h (2 Bft) 95,74 %
02.01.2023 10:18 10,2 C 9,4 C 6,1 C 95 % 1015,9 hPa 0,0 l/m 0 min 0 min 50 W/m 6,4 km/h (2 Bft) 97,83 %
02.01.2023 10:20 10,2 C 9,4 C 6,7 C 95 % 1016,0 hPa 0,0 l/m 0 min 0 min 48 W/m 6,4 km/h (2 Bft) 93,62 %
02.01.2023 10:22 10,2 C 9,4 C 6,1 C 95 % 1016,0 hPa 0,0 l/m 0 min 0 min 43 W/m 9,7 km/h (2 Bft) 97,87 %
02.01.2023 10:24 10,2 C 9,4 C 6,1 C 95 % 1016,0 hPa 0,0 l/m 0 min 0 min 40 W/m 6,4 km/h (2 Bft) 93,62 %
02.01.2023 10:26 10,2 C 9,4 C 6,1 C 95 % 1016,1 hPa 0,0 l/m 0 min 0 min 39 W/m 6,4 km/h (2 Bft) 95,74 %
02.01.2023 10:28 10,2 C 9,4 C 6,1 C 95 % 1016,0 hPa 0,0 l/m 0 min 0 min 40 W/m 12,9 km/h (3 Bft) 97,87 %
02.01.2023 10:30 10,2 C 9,4 C 6,1 C 96 % 1016,1 hPa 0,0 l/m 0 min 0 min 41 W/m 16,1 km/h (3 Bft) 97,83 %
02.01.2023 10:32 10,2 C 9,4 C 6,1 C 95 % 1016,1 hPa 0,0 l/m 0 min 0 min 38 W/m 6,4 km/h (2 Bft) 93,62 %
02.01.2023 10:34 10,2 C 9,4 C 6,1 C 95 % 1016,2 hPa 0,0 l/m 0 min 0 min 39 W/m 6,4 km/h (2 Bft) 97,87 %
02.01.2023 10:36 10,2 C 9,4 C 6,1 C 95 % 1016,2 hPa 0,0 l/m 0 min 0 min 39 W/m 12,9 km/h (3 Bft) 97,87 %
02.01.2023 10:38 10,2 C 9,4 C 6,1 C 95 % 1016,3 hPa 0,0 l/m 0 min 0 min 34 W/m 6,4 km/h (2 Bft) 95,74 %
02.01.2023 10:40 10,2 C 9,4 C 6,1 C 95 % 1016,3 hPa 0,0 l/m 0 min 0 min 37 W/m 6,4 km/h (2 Bft) 97,87 %
02.01.2023 10:42 10,2 C 9,4 C 6,1 C 95 % 1016,3 hPa 0,0 l/m 0 min 0 min 36 W/m 3,2 km/h (1 Bft) 97,83 %
02.01.2023 10:44 10,2 C 9,4 C 6,1 C 95 % 1016,3 hPa 0,0 l/m 0 min 0 min 35 W/m 6,4 km/h (2 Bft) 97,87 %
02.01.2023 10:46 10,2 C 9,4 C 6,1 C 95 % 1016,3 hPa 0,0 l/m 0 min 0 min 35 W/m 3,2 km/h (1 Bft) 97,87 %
02.01.2023 10:48 10,2 C 9,4 C 6,1 C 96 % 1016,4 hPa 0,0 l/m 0 min 0 min 34 W/m 3,2 km/h (1 Bft) 95,74 %
02.01.2023 10:50 10,2 C 9,4 C 6,7 C 96 % 1016,5 hPa 0,0 l/m 0 min 0 min 37 W/m 3,2 km/h (1 Bft) 95,74 %
02.01.2023 10:52 10,2 C 9,4 C 6,1 C 96 % 1016,5 hPa 0,0 l/m 0 min 0 min 35 W/m 3,2 km/h (1 Bft) 93,48 %
02.01.2023 10:54 10,2 C 9,4 C 6,7 C 96 % 1016,6 hPa 0,0 l/m 0 min 0 min 31 W/m 6,4 km/h (2 Bft) 91,49 %
02.01.2023 10:56 10,2 C 9,4 C 6,7 C 96 % 1016,6 hPa 0,0 l/m 0 min 0 min 31 W/m 6,4 km/h (2 Bft) 93,62 %
02.01.2023 10:58 10,2 C 9,4 C 6,7 C 96 % 1016,6 hPa 0,0 l/m 0 min 0 min 34 W/m 12,9 km/h (3 Bft) 97,87 %
02.01.2023 11:00 10,2 C 9,4 C 6,1 C 96 % 1016,6 hPa 0,0 l/m 0 min 0 min 37 W/m 12,9 km/h (3 Bft) 97,87 %
02.01.2023 11:02 10,2 C 9,4 C 6,1 C 96 % 1016,6 hPa 0,0 l/m 0 min 0 min 36 W/m 6,4 km/h (2 Bft) 93,62 %
02.01.2023 11:04 10,2 C 9,4 C 6,1 C 96 % 1016,8 hPa 0,0 l/m 0 min 0 min 33 W/m 6,4 km/h (2 Bft) 97,83 %
02.01.2023 11:06 10,2 C 9,4 C 6,1 C 96 % 1016,8 hPa 0,0 l/m 0 min 0 min 33 W/m 16,1 km/h (3 Bft) 97,87 %
02.01.2023 11:08 10,1 C 9,4 C 6,1 C 96 % 1016,8 hPa 0,0 l/m 0 min 0 min 36 W/m 16,1 km/h (3 Bft) 97,87 %
02.01.2023 11:10 10,1 C 9,4 C 6,1 C 96 % 1016,9 hPa 0,0 l/m 0 min 0 min 39 W/m 12,9 km/h (3 Bft) 97,87 %
02.01.2023 11:12 10,1 C 9,4 C 6,1 C 96 % 1016,9 hPa 0,0 l/m 0 min 0 min 44 W/m 9,7 km/h (2 Bft) 93,62 %
02.01.2023 11:14 10,1 C 9,4 C 6,1 C 96 % 1016,9 hPa 0,0 l/m 0 min 0 min 51 W/m 12,9 km/h (3 Bft) 97,87 %
02.01.2023 11:16 10,1 C 9,4 C 6,1 C 96 % 1016,9 hPa 0,0 l/m 0 min 0 min 55 W/m 6,4 km/h (2 Bft) 95,65 %
02.01.2023 11:18 10,1 C 9,4 C 6,1 C 96 % 1016,9 hPa 0,0 l/m 0 min 0 min 56 W/m 6,4 km/h (2 Bft) 97,87 %
02.01.2023 11:20 10,1 C 9,4 C 6,1 C 96 % 1016,9 hPa 0,0 l/m 0 min 0 min 62 W/m 6,4 km/h (2 Bft) 100,00 %
02.01.2023 11:22 10,1 C 9,4 C 6,1 C 96 % 1016,9 hPa 0,0 l/m 0 min 0 min 69 W/m 12,9 km/h (3 Bft) 100,00 %
02.01.2023 11:24 10,1 C 9,4 C 6,7 C 96 % 1017,0 hPa 0,0 l/m 0 min 0 min 73 W/m 6,4 km/h (2 Bft) 100,00 %
02.01.2023 11:26 10,1 C 9,4 C 6,7 C 96 % 1016,9 hPa 0,0 l/m 0 min 0 min 70 W/m 12,9 km/h (3 Bft) 100,00 %
02.01.2023 11:28 10,1 C 10,0 C 6,1 C 96 % 1016,9 hPa 0,0 l/m 0 min 0 min 73 W/m 16,1 km/h (3 Bft) 100,00 %
02.01.2023 11:30 10,2 C 10,0 C 6,7 C 96 % 1016,8 hPa 0,0 l/m 0 min 0 min 72 W/m 9,7 km/h (2 Bft) 100,00 %
02.01.2023 11:32 10,1 C 10,0 C 6,7 C 96 % 1016,9 hPa 0,0 l/m 0 min 0 min 65 W/m 9,7 km/h (2 Bft) 100,00 %
02.01.2023 11:34 10,2 C 10,0 C 6,7 C 96 % 1016,9 hPa 0,0 l/m 0 min 0 min 63 W/m 12,9 km/h (3 Bft) 100,00 %
02.01.2023 11:36 10,2 C 10,0 C 6,1 C 96 % 1016,9 hPa 0,0 l/m 0 min 0 min 57 W/m 6,4 km/h (2 Bft) 95,74 %
02.01.2023 11:38 10,2 C 10,0 C 6,7 C 96 % 1016,9 hPa 0,0 l/m 0 min 0 min 54 W/m 12,9 km/h (3 Bft) 100,00 %
02.01.2023 11:40 10,2 C 9,4 C 6,7 C 95 % 1017,0 hPa 0,0 l/m 0 min 0 min 55 W/m 12,9 km/h (3 Bft) 100,00 %
02.01.2023 11:42 10,2 C 10,0 C 6,1 C 95 % 1016,9 hPa 0,0 l/m 0 min 0 min 61 W/m 3,2 km/h (1 Bft) 100,00 %
02.01.2023 11:44 10,2 C 10,0 C 6,7 C 95 % 1016,9 hPa 0,0 l/m 0 min 0 min 68 W/m 6,4 km/h (2 Bft) 97,87 %
02.01.2023 11:46 10,2 C 10,0 C 6,7 C 95 % 1017,0 hPa 0,0 l/m 0 min 0 min 71 W/m 6,4 km/h (2 Bft) 97,87 %
02.01.2023 11:48 10,2 C 10,0 C 6,7 C 95 % 1017,0 hPa 0,0 l/m 0 min 0 min 61 W/m 3,2 km/h (1 Bft) 97,87 %
02.01.2023 11:50 10,3 C 10,0 C 6,7 C 96 % 1017,0 hPa 0,0 l/m 0 min 0 min 57 W/m 6,4 km/h (2 Bft) 97,87 %
02.01.2023 11:52 10,3 C 10,0 C 6,7 C 96 % 1017,0 hPa 0,0 l/m 0 min 0 min 62 W/m 6,4 km/h (2 Bft) 97,83 %
02.01.2023 11:54 10,3 C 10,0 C 6,7 C 96 % 1017,0 hPa 0,0 l/m 0 min 0 min 68 W/m 3,2 km/h (1 Bft) 97,87 %
02.01.2023 11:56 10,3 C 10,0 C 6,7 C 96 % 1017,0 hPa 0,0 l/m 0 min 0 min 74 W/m 9,7 km/h (2 Bft) 97,87 %
02.01.2023 11:58 10,3 C 10,0 C 6,7 C 96 % 1016,9 hPa 0,0 l/m 0 min 0 min 64 W/m 6,4 km/h (2 Bft) 95,74 %
02.01.2023 12:00 10,3 C 10,0 C 6,7 C 96 % 1017,0 hPa 0,0 l/m 0 min 0 min 58 W/m 6,4 km/h (2 Bft) 93,62 %
02.01.2023 12:02 10,3 C 10,0 C 6,7 C 96 % 1016,9 hPa 0,0 l/m 0 min 0 min 50 W/m 3,2 km/h (1 Bft) 95,74 %
02.01.2023 12:04 10,3 C 10,0 C 6,7 C 96 % 1016,9 hPa 0,0 l/m 0 min 0 min 42 W/m 6,4 km/h (2 Bft) 97,92 %
02.01.2023 12:07 10,3 C 10,0 C 6,7 C 96 % 1017,0 hPa 0,0 l/m 0 min 0 min 37 W/m 6,4 km/h (2 Bft) 97,18 %
02.01.2023 12:08 10,3 C 10,0 C 6,7 C 96 % 1017,0 hPa 0,0 l/m 0 min 0 min 42 W/m 3,2 km/h (1 Bft) 95,65 %
02.01.2023 12:10 10,2 C 10,0 C 6,7 C 95 % 1016,9 hPa 0,0 l/m 0 min 0 min 35 W/m 6,4 km/h (2 Bft) 95,74 %
02.01.2023 12:12 10,2 C 10,0 C 6,1 C 95 % 1017,0 hPa 0,0 l/m 0 min 0 min 39 W/m 12,9 km/h (3 Bft) 97,87 %
02.01.2023 12:14 10,2 C 10,0 C 6,1 C 95 % 1016,9 hPa 0,0 l/m 0 min 0 min 49 W/m 12,9 km/h (3 Bft) 97,87 %
02.01.2023 12:16 10,2 C 10,0 C 6,1 C 95 % 1017,0 hPa 0,0 l/m 0 min 0 min 61 W/m 6,4 km/h (2 Bft) 97,83 %
02.01.2023 12:18 10,2 C 10,0 C 6,1 C 95 % 1017,0 hPa 0,0 l/m 0 min 0 min 56 W/m 12,9 km/h (3 Bft) 97,87 %
02.01.2023 12:20 10,2 C 10,0 C 6,1 C 95 % 1017,1 hPa 0,0 l/m 0 min 0 min 53 W/m 9,7 km/h (2 Bft) 97,87 %
02.01.2023 12:22 10,2 C 10,0 C 6,1 C 95 % 1017,1 hPa 0,0 l/m 0 min 0 min 44 W/m 6,4 km/h (2 Bft) 97,87 %
02.01.2023 12:24 10,2 C 10,0 C 6,1 C 95 % 1017,1 hPa 0,0 l/m 0 min 0 min 32 W/m 12,9 km/h (3 Bft) 97,87 %
02.01.2023 12:26 10,2 C 10,0 C 6,1 C 95 % 1017,2 hPa 0,0 l/m 0 min 0 min 26 W/m 12,9 km/h (3 Bft) 97,87 %
02.01.2023 12:28 10,2 C 9,4 C 6,1 C 95 % 1017,3 hPa 0,0 l/m 0 min 0 min 21 W/m 16,1 km/h (3 Bft) 100,00 %
02.01.2023 12:30 10,2 C 9,4 C 6,1 C 95 % 1017,3 hPa 0,0 l/m 0 min 0 min 21 W/m 9,7 km/h (2 Bft) 100,00 %
02.01.2023 12:32 10,2 C 9,4 C 6,1 C 94 % 1017,3 hPa 0,0 l/m 0 min 0 min 20 W/m 6,4 km/h (2 Bft) 100,00 %
02.01.2023 12:34 10,2 C 9,4 C 6,1 C 94 % 1017,3 hPa 0,0 l/m 0 min 0 min 23 W/m 6,4 km/h (2 Bft) 95,74 %
02.01.2023 12:36 10,2 C 9,4 C 6,1 C 94 % 1017,1 hPa 0,0 l/m 0 min 0 min 31 W/m 0,0 km/h (0 Bft) 95,74 %
02.01.2023 12:38 10,2 C 9,4 C 6,1 C 94 % 1017,2 hPa 0,0 l/m 0 min 0 min 31 W/m 3,2 km/h (1 Bft) 100,00 %
02.01.2023 12:40 10,2 C 9,4 C 6,1 C 94 % 1017,2 hPa 0,0 l/m 0 min 0 min 35 W/m 3,2 km/h (1 Bft) 97,83 %
02.01.2023 12:42 10,2 C 9,4 C 6,1 C 94 % 1017,2 hPa 0,0 l/m 0 min 0 min 41 W/m 6,4 km/h (2 Bft) 93,62 %
02.01.2023 12:44 10,2 C 9,4 C 6,1 C 94 % 1017,2 hPa 0,0 l/m 0 min 0 min 43 W/m 6,4 km/h (2 Bft) 97,87 %
02.01.2023 12:46 10,2 C 9,4 C 6,1 C 94 % 1017,3 hPa 0,0 l/m 0 min 0 min 33 W/m 9,7 km/h (2 Bft) 93,62 %
02.01.2023 12:48 10,2 C 10,0 C 6,1 C 94 % 1017,3 hPa 0,0 l/m 0 min 0 min 38 W/m 9,7 km/h (2 Bft) 97,87 %
02.01.2023 12:50 10,2 C 10,0 C 6,1 C 94 % 1017,2 hPa 0,0 l/m 0 min 0 min 49 W/m 3,2 km/h (1 Bft) 97,87 %
02.01.2023 12:52 10,2 C 10,0 C 6,1 C 94 % 1017,3 hPa 0,0 l/m 0 min 0 min 66 W/m 3,2 km/h (1 Bft) 97,83 %
02.01.2023 12:54 10,2 C 10,0 C 6,1 C 94 % 1017,3 hPa 0,0 l/m 0 min 0 min 70 W/m 6,4 km/h (2 Bft) 97,87 %
02.01.2023 12:56 10,2 C 10,0 C 6,1 C 94 % 1017,4 hPa 0,0 l/m 0 min 0 min 83 W/m 3,2 km/h (1 Bft) 97,87 %
02.01.2023 12:58 10,3 C 10,0 C 6,7 C 94 % 1017,4 hPa 0,0 l/m 0 min 0 min 80 W/m 3,2 km/h (1 Bft) 97,87 %
02.01.2023 13:00 10,3 C 10,0 C 6,7 C 94 % 1017,5 hPa 0,0 l/m 0 min 0 min 79 W/m 16,1 km/h (3 Bft) 97,87 %
02.01.2023 13:02 10,3 C 10,0 C 6,7 C 94 % 1017,4 hPa 0,0 l/m 0 min 0 min 74 W/m 16,1 km/h (3 Bft) 97,87 %
02.01.2023 13:04 10,3 C 10,0 C 6,7 C 94 % 1017,5 hPa 0,0 l/m 0 min 0 min 67 W/m 3,2 km/h (1 Bft) 97,83 %
02.01.2023 13:06 10,3 C 10,0 C 6,7 C 94 % 1017,4 hPa 0,0 l/m 0 min 0 min 69 W/m 6,4 km/h (2 Bft) 95,74 %
02.01.2023 13:08 10,4 C 10,0 C 6,7 C 94 % 1017,4 hPa 0,0 l/m 0 min 0 min 85 W/m 3,2 km/h (1 Bft) 95,74 %
02.01.2023 13:10 10,4 C 10,0 C 6,7 C 94 % 1017,4 hPa 0,0 l/m 0 min 0 min 84 W/m 12,9 km/h (3 Bft) 95,74 %
02.01.2023 13:12 10,4 C 10,0 C 6,7 C 94 % 1017,5 hPa 0,0 l/m 0 min 0 min 78 W/m 6,4 km/h (2 Bft) 95,74 %
02.01.2023 13:14 10,4 C 10,0 C 6,7 C 94 % 1017,5 hPa 0,0 l/m 0 min 0 min 77 W/m 16,1 km/h (3 Bft) 95,74 %
02.01.2023 13:16 10,4 C 10,0 C 6,7 C 94 % 1017,5 hPa 0,0 l/m 0 min 0 min 70 W/m 12,9 km/h (3 Bft) 97,83 %
02.01.2023 13:18 10,4 C 10,0 C 6,7 C 94 % 1017,5 hPa 0,0 l/m 0 min 0 min 66 W/m 12,9 km/h (3 Bft) 97,87 %
02.01.2023 13:20 10,4 C 10,0 C 6,7 C 94 % 1017,6 hPa 0,0 l/m 0 min 0 min 56 W/m 16,1 km/h (3 Bft) 97,87 %
02.01.2023 13:22 10,4 C 10,0 C 6,1 C 94 % 1017,6 hPa 0,0 l/m 0 min 0 min 49 W/m 12,9 km/h (3 Bft) 95,74 %
02.01.2023 13:24 10,4 C 10,0 C 6,1 C 93 % 1017,7 hPa 0,0 l/m 0 min 0 min 45 W/m 6,4 km/h (2 Bft) 95,74 %
02.01.2023 13:26 10,4 C 10,0 C 6,1 C 93 % 1017,6 hPa 0,0 l/m 0 min 0 min 37 W/m 16,1 km/h (3 Bft) 93,62 %
02.01.2023 13:28 10,4 C 10,0 C 6,1 C 93 % 1017,7 hPa 0,0 l/m 0 min 0 min 38 W/m 6,4 km/h (2 Bft) 97,83 %
02.01.2023 13:30 10,4 C 10,0 C 6,1 C 93 % 1017,7 hPa 0,0 l/m 0 min 0 min 46 W/m 6,4 km/h (2 Bft) 95,74 %
02.01.2023 13:32 10,4 C 10,0 C 6,1 C 93 % 1017,8 hPa 0,0 l/m 0 min 0 min 57 W/m 12,9 km/h (3 Bft) 97,87 %
02.01.2023 13:34 10,4 C 10,0 C 6,1 C 93 % 1017,8 hPa 0,0 l/m 0 min 0 min 59 W/m 12,9 km/h (3 Bft) 97,87 %
02.01.2023 13:36 10,4 C 10,0 C 6,1 C 93 % 1017,9 hPa 0,0 l/m 0 min 0 min 54 W/m 9,7 km/h (2 Bft) 97,87 %
02.01.2023 13:38 10,4 C 10,0 C 6,1 C 93 % 1017,8 hPa 0,0 l/m 0 min 0 min 51 W/m 12,9 km/h (3 Bft) 97,87 %
02.01.2023 13:40 10,4 C 10,0 C 6,1 C 93 % 1017,7 hPa 0,0 l/m 0 min 0 min 61 W/m 6,4 km/h (2 Bft) 97,83 %
02.01.2023 13:42 10,4 C 10,0 C 6,1 C 93 % 1017,7 hPa 0,0 l/m 0 min 0 min 69 W/m 3,2 km/h (1 Bft) 97,87 %
02.01.2023 13:44 10,4 C 10,0 C 6,7 C 93 % 1017,7 hPa 0,0 l/m 0 min 0 min 68 W/m 3,2 km/h (1 Bft) 95,74 %
02.01.2023 13:46 10,4 C 10,0 C 6,1 C 93 % 1017,8 hPa 0,0 l/m 0 min 0 min 60 W/m 12,9 km/h (3 Bft) 97,87 %
02.01.2023 13:48 10,4 C 10,0 C 6,1 C 93 % 1017,8 hPa 0,0 l/m 0 min 0 min 56 W/m 6,4 km/h (2 Bft) 95,74 %
02.01.2023 13:50 10,4 C 10,0 C 6,1 C 93 % 1017,8 hPa 0,0 l/m 0 min 0 min 53 W/m 12,9 km/h (3 Bft) 97,87 %
02.01.2023 13:52 10,4 C 10,0 C 6,1 C 93 % 1017,8 hPa 0,0 l/m 0 min 0 min 54 W/m 6,4 km/h (2 Bft) 97,83 %
02.01.2023 13:54 10,4 C 10,0 C 6,1 C 93 % 1017,9 hPa 0,0 l/m 0 min 0 min 52 W/m 9,7 km/h (2 Bft) 97,87 %
02.01.2023 13:56 10,4 C 10,0 C 6,1 C 93 % 1017,8 hPa 0,0 l/m 0 min 0 min 47 W/m 12,9 km/h (3 Bft) 97,87 %
02.01.2023 13:58 10,4 C 10,0 C 6,1 C 92 % 1017,8 hPa 0,0 l/m 0 min 0 min 44 W/m 12,9 km/h (3 Bft) 100,00 %
02.01.2023 14:00 10,3 C 10,0 C 6,1 C 92 % 1017,8 hPa 0,0 l/m 0 min 0 min 45 W/m 12,9 km/h (3 Bft) 97,87 %
02.01.2023 14:02 10,3 C 10,0 C 6,1 C 92 % 1017,8 hPa 0,0 l/m 0 min 0 min 55 W/m 6,4 km/h (2 Bft) 93,48 %
02.01.2023 14:04 10,3 C 10,0 C 6,1 C 92 % 1017,8 hPa 0,0 l/m 0 min 0 min 62 W/m 0,0 km/h (0 Bft) 95,83 %
02.01.2023 14:06 10,3 C 10,0 C 6,1 C 92 % 1017,8 hPa 0,0 l/m 0 min 0 min 59 W/m 0,0 km/h (0 Bft) 100,00 %
02.01.2023 14:08 10,3 C 10,0 C 6,1 C 92 % 1017,8 hPa 0,0 l/m 0 min 0 min 45 W/m 6,4 km/h (2 Bft) 97,87 %
02.01.2023 14:10 10,3 C 10,0 C 6,1 C 92 % 1017,9 hPa 0,0 l/m 0 min 2 min 39 W/m 12,9 km/h (3 Bft) 97,87 %
02.01.2023 14:12 10,3 C 10,0 C 6,1 C 92 % 1017,9 hPa 0,0 l/m 0 min 2 min 34 W/m 6,4 km/h (2 Bft) 97,87 %
02.01.2023 14:14 10,3 C 10,0 C 6,1 C 92 % 1017,9 hPa 0,0 l/m 0 min 0 min 26 W/m 6,4 km/h (2 Bft) 97,83 %
02.01.2023 14:16 10,3 C 10,0 C 6,1 C 92 % 1018,0 hPa 0,0 l/m 0 min 0 min 24 W/m 3,2 km/h (1 Bft) 97,87 %
02.01.2023 14:18 10,3 C 10,0 C 6,1 C 92 % 1018,0 hPa 0,0 l/m 0 min 0 min 26 W/m 3,2 km/h (1 Bft) 97,87 %
02.01.2023 14:20 10,3 C 10,0 C 6,1 C 92 % 1018,0 hPa 0,0 l/m 0 min 0 min 29 W/m 3,2 km/h (1 Bft) 93,62 %
02.01.2023 14:22 10,3 C 10,0 C 6,1 C 92 % 1018,0 hPa 0,0 l/m 0 min 0 min 32 W/m 6,4 km/h (2 Bft) 95,74 %
02.01.2023 14:24 10,3 C 10,0 C 6,1 C 92 % 1018,1 hPa 0,0 l/m 0 min 0 min 28 W/m 3,2 km/h (1 Bft) 97,87 %
02.01.2023 14:26 10,3 C 9,4 C 6,1 C 92 % 1018,1 hPa 0,0 l/m 0 min 0 min 23 W/m 12,9 km/h (3 Bft) 95,65 %
02.01.2023 14:28 10,3 C 9,4 C 6,1 C 92 % 1018,2 hPa 0,0 l/m 0 min 2 min 20 W/m 6,4 km/h (2 Bft) 97,87 %
02.01.2023 14:30 10,3 C 9,4 C 6,1 C 92 % 1018,2 hPa 0,0 l/m 0 min 2 min 16 W/m 6,4 km/h (2 Bft) 57,45 %
02.01.2023 14:32 10,3 C 9,4 C 6,1 C 92 % 1018,1 hPa 0,0 l/m 0 min 2 min 12 W/m 6,4 km/h (2 Bft) 95,74 %
02.01.2023 14:34 10,3 C 9,4 C 6,1 C 92 % 1018,1 hPa 0,0 l/m 0 min 2 min 12 W/m 6,4 km/h (2 Bft) 95,74 %
02.01.2023 14:36 10,3 C 9,4 C 6,1 C 92 % 1018,0 hPa 0,0 l/m 0 min 2 min 14 W/m 6,4 km/h (2 Bft) 95,74 %
02.01.2023 14:38 10,3 C 9,4 C 6,1 C 92 % 1018,0 hPa 0,2 l/m 0 min 2 min 17 W/m 0,0 km/h (0 Bft) 95,65 %
02.01.2023 14:40 10,2 C 9,4 C 6,1 C 92 % 1018,0 hPa 0,0 l/m 0 min 2 min 18 W/m 3,2 km/h (1 Bft) 95,74 %
02.01.2023 14:42 10,2 C 9,4 C 6,1 C 92 % 1018,1 hPa 0,0 l/m 0 min 2 min 16 W/m 3,2 km/h (1 Bft) 95,74 %
02.01.2023 14:44 10,2 C 9,4 C 6,1 C 93 % 1018,1 hPa 0,0 l/m 0 min 0 min 21 W/m 3,2 km/h (1 Bft) 93,62 %
02.01.2023 14:46 10,2 C 9,4 C 6,1 C 93 % 1018,1 hPa 0,0 l/m 0 min 0 min 31 W/m 3,2 km/h (1 Bft) 93,62 %
02.01.2023 14:48 10,2 C 9,4 C 6,1 C 93 % 1018,2 hPa 0,0 l/m 0 min 0 min 33 W/m 0,0 km/h (0 Bft) 95,74 %
02.01.2023 14:50 10,2 C 9,4 C 6,1 C 93 % 1018,3 hPa 0,0 l/m 0 min 0 min 33 W/m 3,2 km/h (1 Bft) 93,48 %
02.01.2023 14:52 10,2 C 9,4 C 6,1 C 93 % 1018,3 hPa 0,0 l/m 0 min 0 min 30 W/m 3,2 km/h (1 Bft) 95,74 %
02.01.2023 14:54 10,2 C 9,4 C 6,1 C 93 % 1018,3 hPa 0,0 l/m 0 min 0 min 22 W/m 3,2 km/h (1 Bft) 95,74 %
02.01.2023 14:56 10,2 C 9,4 C 6,1 C 93 % 1018,4 hPa 0,0 l/m 0 min 0 min 12 W/m 6,4 km/h (2 Bft) 97,87 %
02.01.2023 14:58 10,2 C 9,4 C 6,1 C 93 % 1018,3 hPa 0,0 l/m 0 min 2 min 13 W/m 3,2 km/h (1 Bft) 97,87 %
02.01.2023 15:00 10,2 C 9,4 C 6,1 C 93 % 1018,3 hPa 0,0 l/m 0 min 2 min 19 W/m 6,4 km/h (2 Bft) 97,87 %
02.01.2023 15:02 10,1 C 9,4 C 6,1 C 93 % 1018,3 hPa 0,0 l/m 0 min 2 min 28 W/m 6,4 km/h (2 Bft) 97,83 %
02.01.2023 15:04 10,1 C 9,4 C 6,1 C 93 % 1018,2 hPa 0,0 l/m 0 min 0 min 43 W/m 9,7 km/h (2 Bft) 100,00 %
02.01.2023 15:06 10,1 C 9,4 C 6,1 C 94 % 1018,4 hPa 0,0 l/m 0 min 0 min 52 W/m 12,9 km/h (3 Bft) 100,00 %
02.01.2023 15:08 10,1 C 9,4 C 6,1 C 94 % 1018,5 hPa 0,0 l/m 0 min 0 min 39 W/m 6,4 km/h (2 Bft) 100,00 %
02.01.2023 15:10 10,1 C 9,4 C 6,1 C 94 % 1018,6 hPa 0,0 l/m 0 min 2 min 31 W/m 12,9 km/h (3 Bft) 100,00 %
02.01.2023 15:12 10,1 C 9,4 C 6,1 C 94 % 1018,5 hPa 0,0 l/m 0 min 0 min 28 W/m 3,2 km/h (1 Bft) 100,00 %
02.01.2023 15:14 10,1 C 9,4 C 6,1 C 94 % 1018,5 hPa 0,0 l/m 0 min 0 min 32 W/m 9,7 km/h (2 Bft) 100,00 %
02.01.2023 15:16 10,1 C 9,4 C 6,1 C 94 % 1018,5 hPa 0,0 l/m 0 min 0 min 42 W/m 6,4 km/h (2 Bft) 100,00 %
02.01.2023 15:18 10,1 C 9,4 C 6,1 C 94 % 1018,5 hPa 0,0 l/m 0 min 0 min 49 W/m 6,4 km/h (2 Bft) 97,87 %
02.01.2023 15:20 10,0 C 9,4 C 6,1 C 94 % 1018,5 hPa 0,0 l/m 0 min 0 min 44 W/m 6,4 km/h (2 Bft) 100,00 %
02.01.2023 15:22 10,0 C 9,4 C 6,1 C 94 % 1018,6 hPa 0,0 l/m 0 min 0 min 37 W/m 9,7 km/h (2 Bft) 97,87 %
02.01.2023 15:24 10,0 C 9,4 C 6,1 C 94 % 1018,7 hPa 0,0 l/m 0 min 0 min 33 W/m 3,2 km/h (1 Bft) 100,00 %
02.01.2023 15:26 10,0 C 9,4 C 6,1 C 94 % 1018,7 hPa 0,0 l/m 0 min 0 min 30 W/m 6,4 km/h (2 Bft) 97,83 %
02.01.2023 15:28 10,0 C 9,4 C 6,1 C 94 % 1018,6 hPa 0,0 l/m 0 min 0 min 27 W/m 6,4 km/h (2 Bft) 100,00 %
02.01.2023 15:30 9,9 C 9,4 C 6,1 C 94 % 1018,7 hPa 0,0 l/m 0 min 0 min 24 W/m 12,9 km/h (3 Bft) 97,87 %
02.01.2023 15:32 9,9 C 9,4 C 6,1 C 94 % 1018,7 hPa 0,0 l/m 0 min 2 min 18 W/m 9,7 km/h (2 Bft) 100,00 %
02.01.2023 15:34 9,9 C 9,4 C 6,1 C 94 % 1018,8 hPa 0,0 l/m 0 min 2 min 18 W/m 12,9 km/h (3 Bft) 100,00 %
02.01.2023 15:36 9,9 C 9,4 C 6,1 C 94 % 1018,8 hPa 0,0 l/m 0 min 0 min 19 W/m 12,9 km/h (3 Bft) 100,00 %
02.01.2023 15:38 9,9 C 9,4 C 6,1 C 94 % 1018,8 hPa 0,0 l/m 0 min 0 min 24 W/m 9,7 km/h (2 Bft) 100,00 %
02.01.2023 15:40 9,9 C 9,4 C 6,1 C 94 % 1018,8 hPa 0,0 l/m 0 min 0 min 26 W/m 6,4 km/h (2 Bft) 100,00 %
02.01.2023 15:42 9,9 C 9,4 C 6,1 C 94 % 1018,9 hPa 0,0 l/m 0 min 0 min 26 W/m 3,2 km/h (1 Bft) 100,00 %
02.01.2023 15:44 9,9 C 9,4 C 6,1 C 94 % 1018,8 hPa 0,0 l/m 0 min 0 min 26 W/m 3,2 km/h (1 Bft) 100,00 %
02.01.2023 15:46 9,9 C 9,4 C 6,1 C 94 % 1018,9 hPa 0,0 l/m 0 min 0 min 25 W/m 6,4 km/h (2 Bft) 100,00 %
02.01.2023 15:48 9,9 C 9,4 C 6,1 C 94 % 1019,0 hPa 0,0 l/m 0 min 0 min 23 W/m 12,9 km/h (3 Bft) 100,00 %
02.01.2023 15:50 9,9 C 9,4 C 6,1 C 94 % 1019,1 hPa 0,0 l/m 0 min 0 min 24 W/m 12,9 km/h (3 Bft) 97,83 %
02.01.2023 15:52 9,8 C 9,4 C 5,6 C 94 % 1019,1 hPa 0,0 l/m 0 min 0 min 22 W/m 6,4 km/h (2 Bft) 97,87 %
02.01.2023 15:54 9,8 C 9,4 C 5,6 C 94 % 1019,0 hPa 0,0 l/m 0 min 0 min 19 W/m 3,2 km/h (1 Bft) 100,00 %
02.01.2023 15:56 9,8 C 9,4 C 5,6 C 94 % 1019,0 hPa 0,0 l/m 0 min 0 min 18 W/m 12,9 km/h (3 Bft) 97,87 %
02.01.2023 15:58 9,8 C 9,4 C 5,6 C 94 % 1019,0 hPa 0,0 l/m 0 min 0 min 16 W/m 12,9 km/h (3 Bft) 100,00 %
02.01.2023 16:00 9,8 C 9,4 C 5,6 C 94 % 1019,0 hPa 0,0 l/m 0 min 0 min 14 W/m 6,4 km/h (2 Bft) 100,00 %
02.01.2023 16:02 9,8 C 9,4 C 5,6 C 94 % 1019,0 hPa 0,0 l/m 0 min 0 min 14 W/m 6,4 km/h (2 Bft) 100,00 %
02.01.2023 16:04 9,8 C 9,4 C 5,6 C 94 % 1019,0 hPa 0,0 l/m 0 min 0 min 12 W/m 3,2 km/h (1 Bft) 100,00 %
02.01.2023 16:06 9,8 C 8,9 C 5,6 C 94 % 1019,0 hPa 0,0 l/m 0 min 0 min 12 W/m 9,7 km/h (2 Bft) 97,87 %
02.01.2023 16:08 9,8 C 8,9 C 5,6 C 94 % 1019,0 hPa 0,0 l/m 0 min 0 min 12 W/m 9,7 km/h (2 Bft) 100,00 %
02.01.2023 16:10 9,7 C 8,9 C 5,6 C 94 % 1018,9 hPa 0,0 l/m 0 min 0 min 12 W/m 9,7 km/h (2 Bft) 97,87 %
02.01.2023 16:12 9,7 C 8,9 C 5,6 C 94 % 1019,0 hPa 0,0 l/m 0 min 0 min 12 W/m 6,4 km/h (2 Bft) 95,74 %
02.01.2023 16:14 9,7 C 8,9 C 5,6 C 94 % 1019,0 hPa 0,0 l/m 0 min 0 min 10 W/m 0,0 km/h (0 Bft) 84,78 %
02.01.2023 16:16 9,7 C 8,9 C 5,6 C 94 % 1019,0 hPa 0,0 l/m 0 min 0 min 8 W/m 0,0 km/h (0 Bft) 58,82 %
02.01.2023 16:18 9,7 C 8,9 C 5,6 C 94 % 1019,1 hPa 0,0 l/m 0 min 0 min 7 W/m 9,7 km/h (2 Bft) 97,87 %
02.01.2023 16:20 9,7 C 8,9 C 5,6 C 94 % 1019,2 hPa 0,0 l/m 0 min 0 min 9 W/m 3,2 km/h (1 Bft) 97,87 %
02.01.2023 16:22 9,7 C 8,9 C 5,6 C 94 % 1019,2 hPa 0,0 l/m 0 min 0 min 12 W/m 6,4 km/h (2 Bft) 95,74 %
02.01.2023 16:24 9,7 C 8,9 C 5,6 C 94 % 1019,3 hPa 0,0 l/m 0 min 0 min 15 W/m 3,2 km/h (1 Bft) 97,87 %
02.01.2023 16:26 9,7 C 8,9 C 5,6 C 94 % 1019,3 hPa 0,0 l/m 0 min 0 min 19 W/m 6,4 km/h (2 Bft) 95,65 %
02.01.2023 16:28 9,7 C 8,9 C 5,6 C 94 % 1019,4 hPa 0,0 l/m 0 min 0 min 19 W/m 3,2 km/h (1 Bft) 95,74 %
02.01.2023 16:30 9,7 C 8,9 C 5,6 C 94 % 1019,5 hPa 0,0 l/m 0 min 0 min 18 W/m 6,4 km/h (2 Bft) 93,62 %
02.01.2023 16:32 9,7 C 8,9 C 5,6 C 94 % 1019,5 hPa 0,0 l/m 0 min 0 min 14 W/m 9,7 km/h (2 Bft) 95,74 %
02.01.2023 16:34 9,7 C 8,9 C 5,6 C 94 % 1019,5 hPa 0,0 l/m 0 min 0 min 12 W/m 3,2 km/h (1 Bft) 97,87 %
02.01.2023 16:36 9,7 C 8,9 C 5,6 C 94 % 1019,6 hPa 0,0 l/m 0 min 0 min 10 W/m 3,2 km/h (1 Bft) 95,65 %
02.01.2023 16:38 9,7 C 8,9 C 5,6 C 94 % 1019,6 hPa 0,0 l/m 0 min 0 min 7 W/m 12,9 km/h (3 Bft) 93,62 %
02.01.2023 16:40 9,7 C 8,9 C 5,6 C 94 % 1019,7 hPa 0,0 l/m 0 min 0 min 7 W/m 12,9 km/h (3 Bft) 91,49 %
02.01.2023 16:42 9,7 C 8,9 C 5,6 C 94 % 1019,7 hPa 0,0 l/m 0 min 0 min 7 W/m 9,7 km/h (2 Bft) 93,62 %
02.01.2023 16:44 9,6 C 8,9 C 5,6 C 94 % 1019,8 hPa 0,0 l/m 0 min 0 min 5 W/m 9,7 km/h (2 Bft) 91,49 %
02.01.2023 16:46 9,6 C 8,9 C 5,6 C 94 % 1019,8 hPa 0,0 l/m 0 min 0 min 5 W/m 12,9 km/h (3 Bft) 89,36 %
02.01.2023 16:48 9,6 C 8,9 C 5,6 C 94 % 1019,8 hPa 0,0 l/m 0 min 0 min 0 W/m 19,3 km/h (3 Bft) 95,65 %
02.01.2023 16:50 9,6 C 8,9 C 5,6 C 94 % 1019,8 hPa 0,0 l/m 0 min 0 min 0 W/m 19,3 km/h (3 Bft) 91,49 %
02.01.2023 16:52 9,6 C 8,9 C 5,6 C 94 % 1019,8 hPa 0,0 l/m 0 min 0 min 0 W/m 9,7 km/h (2 Bft) 93,62 %
02.01.2023 16:54 9,6 C 8,9 C 5,6 C 94 % 1019,8 hPa 0,0 l/m 0 min 0 min 0 W/m 12,9 km/h (3 Bft) 95,74 %
02.01.2023 16:56 9,6 C 8,9 C 5,6 C 94 % 1019,8 hPa 0,0 l/m 0 min 0 min 0 W/m 19,3 km/h (3 Bft) 95,74 %
02.01.2023 16:58 9,6 C 8,9 C 5,6 C 94 % 1019,9 hPa 0,0 l/m 0 min 0 min 0 W/m 12,9 km/h (3 Bft) 93,62 %
02.01.2023 17:00 9,6 C 8,9 C 5,6 C 94 % 1019,8 hPa 0,0 l/m 0 min 0 min 0 W/m 16,1 km/h (3 Bft) 95,65 %
02.01.2023 17:02 9,6 C 8,9 C 5,6 C 94 % 1019,9 hPa 0,0 l/m 0 min 0 min 0 W/m 12,9 km/h (3 Bft) 91,49 %
02.01.2023 17:04 9,6 C 8,9 C 5,6 C 94 % 1019,9 hPa 0,0 l/m 0 min 0 min 0 W/m 12,9 km/h (3 Bft) 95,74 %
02.01.2023 17:06 9,6 C 8,9 C 5,6 C 94 % 1019,9 hPa 0,0 l/m 0 min 0 min 0 W/m 16,1 km/h (3 Bft) 91,49 %
02.01.2023 17:08 9,6 C 8,9 C 5,6 C 94 % 1020,0 hPa 0,0 l/m 0 min 0 min 0 W/m 16,1 km/h (3 Bft) 95,74 %
02.01.2023 17:10 9,5 C 8,9 C 5,6 C 94 % 1020,1 hPa 0,0 l/m 0 min 0 min 0 W/m 16,1 km/h (3 Bft) 95,74 %
02.01.2023 17:12 9,5 C 8,9 C 5,6 C 94 % 1020,1 hPa 0,0 l/m 0 min 0 min 0 W/m 12,9 km/h (3 Bft) 97,83 %
02.01.2023 17:14 9,4 C 8,9 C 5,6 C 94 % 1020,1 hPa 0,0 l/m 0 min 0 min 0 W/m 12,9 km/h (3 Bft) 95,74 %
02.01.2023 17:16 9,4 C 8,9 C 5,6 C 94 % 1020,0 hPa 0,0 l/m 0 min 0 min 0 W/m 9,7 km/h (2 Bft) 97,87 %
02.01.2023 17:18 9,4 C 8,9 C 5,6 C 94 % 1020,1 hPa 0,0 l/m 0 min 0 min 0 W/m 12,9 km/h (3 Bft) 97,87 %
02.01.2023 17:20 9,4 C 8,9 C 5,6 C 94 % 1020,1 hPa 0,0 l/m 0 min 0 min 0 W/m 6,4 km/h (2 Bft) 97,87 %
02.01.2023 17:22 9,4 C 8,9 C 5,6 C 94 % 1020,3 hPa 0,0 l/m 0 min 0 min 0 W/m 12,9 km/h (3 Bft) 100,00 %
02.01.2023 17:24 9,4 C 8,9 C 5,6 C 95 % 1020,4 hPa 0,0 l/m 0 min 0 min 0 W/m 9,7 km/h (2 Bft) 97,83 %
02.01.2023 17:26 9,4 C 8,9 C 5,6 C 95 % 1020,4 hPa 0,0 l/m 0 min 2 min 0 W/m 19,3 km/h (3 Bft) 97,87 %
02.01.2023 17:28 9,4 C 8,9 C 5,6 C 95 % 1020,7 hPa 0,0 l/m 0 min 2 min 0 W/m 25,7 km/h (4 Bft) 97,87 %
02.01.2023 17:30 9,3 C 8,3 C 5,0 C 94 % 1020,9 hPa 0,2 l/m 0 min 2 min 0 W/m 25,7 km/h (4 Bft) 97,87 %
02.01.2023 17:32 9,2 C 7,8 C 5,0 C 94 % 1020,9 hPa 0,0 l/m 0 min 2 min 0 W/m 29,0 km/h (5 Bft) 95,74 %
02.01.2023 17:34 9,1 C 7,8 C 5,0 C 94 % 1020,9 hPa 0,2 l/m 0 min 2 min 0 W/m 19,3 km/h (3 Bft) 95,74 %
02.01.2023 17:36 8,9 C 7,8 C 4,4 C 93 % 1020,8 hPa 0,0 l/m 0 min 2 min 0 W/m 16,1 km/h (3 Bft) 100,00 %
02.01.2023 17:38 8,8 C 7,8 C 4,4 C 93 % 1020,8 hPa 0,2 l/m 0 min 2 min 0 W/m 16,1 km/h (3 Bft) 95,74 %
02.01.2023 17:40 8,7 C 7,2 C 4,4 C 93 % 1020,6 hPa 0,2 l/m 0 min 2 min 0 W/m 6,4 km/h (2 Bft) 97,87 %
02.01.2023 17:42 8,6 C 7,2 C 4,4 C 93 % 1020,7 hPa 0,0 l/m 0 min 2 min 0 W/m 6,4 km/h (2 Bft) 100,00 %
02.01.2023 17:44 8,6 C 7,2 C 4,4 C 93 % 1020,7 hPa 0,0 l/m 0 min 2 min 0 W/m 6,4 km/h (2 Bft) 97,87 %
02.01.2023 17:46 8,6 C 7,2 C 4,4 C 93 % 1020,7 hPa 0,0 l/m 0 min 2 min 0 W/m 6,4 km/h (2 Bft) 100,00 %
02.01.2023 17:48 8,5 C 7,2 C 4,4 C 93 % 1020,8 hPa 0,0 l/m 0 min 2 min 0 W/m 16,1 km/h (3 Bft) 100,00 %
02.01.2023 17:50 8,4 C 7,2 C 4,4 C 93 % 1020,8 hPa 0,0 l/m 0 min 0 min 0 W/m 6,4 km/h (2 Bft) 95,74 %
02.01.2023 17:52 8,4 C 7,2 C 4,4 C 93 % 1020,9 hPa 0,0 l/m 0 min 0 min 0 W/m 6,4 km/h (2 Bft) 100,00 %
02.01.2023 17:54 8,4 C 7,2 C 4,4 C 93 % 1020,9 hPa 0,2 l/m 0 min 0 min 0 W/m 6,4 km/h (2 Bft) 97,87 %
02.01.2023 17:56 8,3 C 7,2 C 4,4 C 93 % 1021,0 hPa 0,0 l/m 0 min 0 min 0 W/m 6,4 km/h (2 Bft) 95,74 %
02.01.2023 17:58 8,3 C 7,2 C 4,4 C 93 % 1021,0 hPa 0,0 l/m 0 min 0 min 0 W/m 6,4 km/h (2 Bft) 97,87 %
02.01.2023 18:00 8,3 C 7,2 C 4,4 C 93 % 1021,1 hPa 0,0 l/m 0 min 0 min 0 W/m 6,4 km/h (2 Bft) 100,00 %
02.01.2023 18:02 8,2 C 7,2 C 4,4 C 93 % 1021,1 hPa 0,0 l/m 0 min 0 min 0 W/m 6,4 km/h (2 Bft) 95,74 %
02.01.2023 18:04 8,2 C 7,2 C 4,4 C 93 % 1021,1 hPa 0,0 l/m 0 min 0 min 0 W/m 6,4 km/h (2 Bft) 100,00 %
02.01.2023 18:07 8,2 C 7,2 C 4,4 C 93 % 1021,1 hPa 0,0 l/m 0 min 0 min 0 W/m 12,9 km/h (3 Bft) 100,00 %
02.01.2023 18:08 8,1 C 7,2 C 3,9 C 93 % 1021,1 hPa 0,0 l/m 0 min 0 min 0 W/m 6,4 km/h (2 Bft) 95,83 %
02.01.2023 18:10 8,1 C 7,2 C 3,9 C 93 % 1021,2 hPa 0,0 l/m 0 min 0 min 0 W/m 6,4 km/h (2 Bft) 100,00 %
02.01.2023 18:12 8,1 C 7,2 C 4,4 C 94 % 1021,2 hPa 0,0 l/m 0 min 0 min 0 W/m 6,4 km/h (2 Bft) 97,83 %
02.01.2023 18:14 8,1 C 7,2 C 3,9 C 94 % 1021,3 hPa 0,0 l/m 0 min 0 min 0 W/m 9,7 km/h (2 Bft) 93,62 %
02.01.2023 18:16 8,1 C 7,2 C 3,9 C 94 % 1021,3 hPa 0,0 l/m 0 min 0 min 0 W/m 16,1 km/h (3 Bft) 97,87 %
02.01.2023 18:18 8,1 C 7,2 C 3,9 C 94 % 1021,3 hPa 0,0 l/m 0 min 0 min 0 W/m 12,9 km/h (3 Bft) 97,87 %
02.01.2023 18:20 8,1 C 7,2 C 4,4 C 94 % 1021,4 hPa 0,0 l/m 0 min 0 min 0 W/m 6,4 km/h (2 Bft) 97,87 %
02.01.2023 18:22 8,1 C 7,2 C 4,4 C 94 % 1021,4 hPa 0,0 l/m 0 min 0 min 0 W/m 9,7 km/h (2 Bft) 95,74 %
02.01.2023 18:24 8,1 C 7,2 C 4,4 C 94 % 1021,4 hPa 0,0 l/m 0 min 0 min 0 W/m 9,7 km/h (2 Bft) 97,83 %
02.01.2023 18:26 8,1 C 7,2 C 4,4 C 94 % 1021,3 hPa 0,0 l/m 0 min 0 min 0 W/m 6,4 km/h (2 Bft) 97,87 %
02.01.2023 18:28 8,1 C 7,2 C 3,9 C 94 % 1021,3 hPa 0,0 l/m 0 min 0 min 0 W/m 6,4 km/h (2 Bft) 95,74 %
02.01.2023 18:30 8,1 C 7,2 C 3,9 C 94 % 1021,4 hPa 0,0 l/m 0 min 0 min 0 W/m 9,7 km/h (2 Bft) 97,87 %
02.01.2023 18:32 8,1 C 7,2 C 3,9 C 94 % 1021,4 hPa 0,0 l/m 0 min 0 min 0 W/m 9,7 km/h (2 Bft) 97,87 %
02.01.2023 18:34 8,0 C 7,2 C 3,9 C 94 % 1021,5 hPa 0,0 l/m 0 min 0 min 0 W/m 12,9 km/h (3 Bft) 97,87 %
02.01.2023 18:36 8,0 C 7,2 C 3,9 C 94 % 1021,4 hPa 0,0 l/m 0 min 0 min 0 W/m 12,9 km/h (3 Bft) 97,83 %
02.01.2023 18:38 8,0 C 7,2 C 3,9 C 94 % 1021,4 hPa 0,0 l/m 0 min 0 min 0 W/m 6,4 km/h (2 Bft) 95,74 %
02.01.2023 18:40 8,0 C 7,2 C 3,9 C 94 % 1021,5 hPa 0,0 l/m 0 min 0 min 0 W/m 6,4 km/h (2 Bft) 97,87 %
02.01.2023 18:42 7,9 C 7,2 C 3,9 C 94 % 1021,5 hPa 0,0 l/m 0 min 0 min 0 W/m 16,1 km/h (3 Bft) 100,00 %
02.01.2023 18:44 7,9 C 7,2 C 3,9 C 94 % 1021,5 hPa 0,0 l/m 0 min 0 min 0 W/m 6,4 km/h (2 Bft) 100,00 %
02.01.2023 18:46 7,9 C 6,7 C 3,9 C 94 % 1021,5 hPa 0,0 l/m 0 min 0 min 0 W/m 6,4 km/h (2 Bft) 97,83 %
02.01.2023 18:48 7,9 C 6,7 C 3,9 C 94 % 1021,6 hPa 0,0 l/m 0 min 0 min 0 W/m 6,4 km/h (2 Bft) 97,87 %
02.01.2023 18:50 7,9 C 6,7 C 3,9 C 94 % 1021,6 hPa 0,0 l/m 0 min 0 min 0 W/m 16,1 km/h (3 Bft) 100,00 %
02.01.2023 18:52 7,8 C 6,7 C 3,9 C 94 % 1021,7 hPa 0,0 l/m 0 min 0 min 0 W/m 9,7 km/h (2 Bft) 100,00 %
02.01.2023 18:54 7,8 C 6,7 C 3,9 C 94 % 1021,8 hPa 0,0 l/m 0 min 0 min 0 W/m 12,9 km/h (3 Bft) 100,00 %
02.01.2023 18:56 7,8 C 6,7 C 3,9 C 94 % 1021,8 hPa 0,0 l/m 0 min 0 min 0 W/m 12,9 km/h (3 Bft) 97,87 %
02.01.2023 18:58 7,8 C 6,7 C 3,9 C 94 % 1021,9 hPa 0,0 l/m 0 min 0 min 0 W/m 6,4 km/h (2 Bft) 97,83 %
02.01.2023 19:00 7,8 C 6,7 C 3,9 C 94 % 1022,0 hPa 0,0 l/m 0 min 0 min 0 W/m 16,1 km/h (3 Bft) 100,00 %
02.01.2023 19:02 7,8 C 6,7 C 3,9 C 94 % 1022,0 hPa 0,0 l/m 0 min 0 min 0 W/m 6,4 km/h (2 Bft) 97,87 %
02.01.2023 19:04 7,8 C 6,7 C 3,9 C 94 % 1022,0 hPa 0,0 l/m 0 min 0 min 0 W/m 12,9 km/h (3 Bft) 97,87 %
02.01.2023 19:06 7,8 C 6,7 C 3,9 C 94 % 1022,0 hPa 0,0 l/m 0 min 0 min 0 W/m 9,7 km/h (2 Bft) 97,87 %
02.01.2023 19:08 7,8 C 6,7 C 3,9 C 94 % 1022,0 hPa 0,0 l/m 0 min 0 min 0 W/m 6,4 km/h (2 Bft) 97,87 %
02.01.2023 19:10 7,8 C 6,7 C 3,9 C 94 % 1022,1 hPa 0,0 l/m 0 min 0 min 0 W/m 16,1 km/h (3 Bft) 97,83 %
02.01.2023 19:12 7,8 C 6,7 C 3,9 C 95 % 1022,2 hPa 0,0 l/m 0 min 0 min 0 W/m 6,4 km/h (2 Bft) 100,00 %
02.01.2023 19:14 7,8 C 6,7 C 3,9 C 95 % 1022,2 hPa 0,0 l/m 0 min 0 min 0 W/m 9,7 km/h (2 Bft) 97,87 %
02.01.2023 19:16 7,8 C 6,7 C 3,9 C 95 % 1022,2 hPa 0,0 l/m 0 min 0 min 0 W/m 6,4 km/h (2 Bft) 97,87 %
02.01.2023 19:18 7,8 C 6,7 C 3,9 C 95 % 1022,3 hPa 0,0 l/m 0 min 0 min 0 W/m 6,4 km/h (2 Bft) 93,62 %
02.01.2023 19:20 7,8 C 6,7 C 3,9 C 95 % 1022,4 hPa 0,0 l/m 0 min 0 min 0 W/m 3,2 km/h (1 Bft) 95,74 %
02.01.2023 19:22 7,8 C 6,7 C 3,9 C 95 % 1022,4 hPa 0,0 l/m 0 min 0 min 0 W/m 6,4 km/h (2 Bft) 95,65 %
02.01.2023 19:24 7,8 C 6,7 C 3,9 C 95 % 1022,5 hPa 0,0 l/m 0 min 0 min 0 W/m 6,4 km/h (2 Bft) 95,74 %
02.01.2023 19:26 7,8 C 6,7 C 3,9 C 95 % 1022,5 hPa 0,0 l/m 0 min 0 min 0 W/m 6,4 km/h (2 Bft) 97,87 %
02.01.2023 19:28 7,8 C 6,7 C 3,9 C 95 % 1022,5 hPa 0,0 l/m 0 min 0 min 0 W/m 6,4 km/h (2 Bft) 97,87 %
02.01.2023 19:30 7,8 C 6,7 C 3,9 C 95 % 1022,5 hPa 0,0 l/m 0 min 0 min 0 W/m 6,4 km/h (2 Bft) 95,74 %
02.01.2023 19:32 7,8 C 7,2 C 3,9 C 95 % 1022,5 hPa 0,0 l/m 0 min 0 min 0 W/m 3,2 km/h (1 Bft) 95,74 %
02.01.2023 19:34 7,8 C 7,2 C 3,9 C 95 % 1022,6 hPa 0,0 l/m 0 min 0 min 0 W/m 6,4 km/h (2 Bft) 93,48 %
02.01.2023 19:36 7,8 C 7,2 C 4,4 C 95 % 1022,6 hPa 0,0 l/m 0 min 0 min 0 W/m 6,4 km/h (2 Bft) 95,74 %
02.01.2023 19:38 7,8 C 7,2 C 4,4 C 95 % 1022,6 hPa 0,0 l/m 0 min 0 min 0 W/m 6,4 km/h (2 Bft) 95,74 %
02.01.2023 19:40 7,8 C 7,2 C 4,4 C 95 % 1022,6 hPa 0,0 l/m 0 min 0 min 0 W/m 6,4 km/h (2 Bft) 95,74 %
02.01.2023 19:42 7,8 C 7,2 C 4,4 C 95 % 1022,7 hPa 0,0 l/m 0 min 0 min 0 W/m 3,2 km/h (1 Bft) 95,74 %
02.01.2023 19:44 7,9 C 7,2 C 4,4 C 95 % 1022,7 hPa 0,0 l/m 0 min 0 min 0 W/m 3,2 km/h (1 Bft) 97,87 %
02.01.2023 19:46 7,9 C 7,2 C 4,4 C 95 % 1022,7 hPa 0,0 l/m 0 min 0 min 0 W/m 6,4 km/h (2 Bft) 97,83 %
02.01.2023 19:48 7,9 C 7,2 C 4,4 C 95 % 1022,8 hPa 0,0 l/m 0 min 0 min 0 W/m 6,4 km/h (2 Bft) 97,87 %
02.01.2023 19:50 7,9 C 7,2 C 4,4 C 95 % 1022,7 hPa 0,0 l/m 0 min 0 min 0 W/m 6,4 km/h (2 Bft) 97,87 %
02.01.2023 19:52 7,9 C 7,2 C 4,4 C 96 % 1022,8 hPa 0,0 l/m 0 min 0 min 0 W/m 6,4 km/h (2 Bft) 97,87 %
02.01.2023 19:54 7,9 C 7,2 C 4,4 C 95 % 1022,8 hPa 0,0 l/m 0 min 0 min 0 W/m 12,9 km/h (3 Bft) 93,62 %
02.01.2023 19:56 7,9 C 7,2 C 4,4 C 96 % 1022,8 hPa 0,0 l/m 0 min 0 min 0 W/m 3,2 km/h (1 Bft) 97,87 %
02.01.2023 19:58 8,0 C 7,2 C 4,4 C 96 % 1022,8 hPa 0,0 l/m 0 min 0 min 0 W/m 9,7 km/h (2 Bft) 97,83 %
02.01.2023 20:00 8,0 C 7,2 C 4,4 C 96 % 1022,8 hPa 0,0 l/m 0 min 0 min 0 W/m 19,3 km/h (3 Bft) 95,74 %
02.01.2023 20:02 8,0 C 7,2 C 4,4 C 96 % 1022,9 hPa 0,0 l/m 0 min 0 min 0 W/m 9,7 km/h (2 Bft) 95,74 %
02.01.2023 20:04 8,1 C 7,2 C 4,4 C 96 % 1022,9 hPa 0,0 l/m 0 min 0 min 0 W/m 6,4 km/h (2 Bft) 95,83 %
02.01.2023 20:06 8,1 C 7,8 C 4,4 C 96 % 1022,9 hPa 0,0 l/m 0 min 0 min 0 W/m 6,4 km/h (2 Bft) 95,74 %
02.01.2023 20:08 8,1 C 7,8 C 4,4 C 96 % 1022,9 hPa 0,0 l/m 0 min 0 min 0 W/m 9,7 km/h (2 Bft) 91,49 %
02.01.2023 20:10 8,1 C 7,8 C 4,4 C 96 % 1023,0 hPa 0,0 l/m 0 min 0 min 0 W/m 12,9 km/h (3 Bft) 95,74 %
02.01.2023 20:12 8,1 C 7,8 C 4,4 C 95 % 1023,0 hPa 0,0 l/m 0 min 0 min 0 W/m 6,4 km/h (2 Bft) 95,74 %
02.01.2023 20:14 8,1 C 7,8 C 4,4 C 96 % 1023,0 hPa 0,0 l/m 0 min 0 min 0 W/m 6,4 km/h (2 Bft) 95,74 %
02.01.2023 20:16 8,1 C 7,8 C 4,4 C 96 % 1023,0 hPa 0,0 l/m 0 min 0 min 0 W/m 3,2 km/h (1 Bft) 95,65 %
02.01.2023 20:18 8,2 C 7,8 C 4,4 C 96 % 1023,1 hPa 0,0 l/m 0 min 0 min 0 W/m 6,4 km/h (2 Bft) 95,74 %
02.01.2023 20:20 8,2 C 7,8 C 4,4 C 96 % 1023,1 hPa 0,0 l/m 0 min 0 min 0 W/m 6,4 km/h (2 Bft) 95,74 %
02.01.2023 20:22 8,2 C 7,8 C 4,4 C 96 % 1023,2 hPa 0,0 l/m 0 min 0 min 0 W/m 19,3 km/h (3 Bft) 97,87 %
02.01.2023 20:24 8,2 C 7,8 C 4,4 C 96 % 1023,2 hPa 0,0 l/m 0 min 0 min 0 W/m 16,1 km/h (3 Bft) 97,87 %
02.01.2023 20:26 8,2 C 7,8 C 4,4 C 96 % 1023,2 hPa 0,0 l/m 0 min 0 min 0 W/m 6,4 km/h (2 Bft) 93,62 %
02.01.2023 20:28 8,3 C 7,8 C 4,4 C 95 % 1023,3 hPa 0,0 l/m 0 min 0 min 0 W/m 12,9 km/h (3 Bft) 97,83 %
02.01.2023 20:30 8,3 C 7,8 C 4,4 C 95 % 1023,3 hPa 0,0 l/m 0 min 0 min 0 W/m 6,4 km/h (2 Bft) 100,00 %
02.01.2023 20:32 8,3 C 7,8 C 4,4 C 95 % 1023,4 hPa 0,0 l/m 0 min 0 min 0 W/m 9,7 km/h (2 Bft) 100,00 %
02.01.2023 20:34 8,4 C 7,8 C 4,4 C 95 % 1023,4 hPa 0,0 l/m 0 min 0 min 0 W/m 3,2 km/h (1 Bft) 97,87 %
02.01.2023 20:36 8,4 C 7,8 C 4,4 C 95 % 1023,4 hPa 0,0 l/m 0 min 0 min 0 W/m 6,4 km/h (2 Bft) 97,87 %
02.01.2023 20:38 8,4 C 7,8 C 5,0 C 95 % 1023,5 hPa 0,0 l/m 0 min 0 min 0 W/m 6,4 km/h (2 Bft) 100,00 %
02.01.2023 20:40 8,4 C 7,8 C 5,0 C 95 % 1023,5 hPa 0,0 l/m 0 min 0 min 0 W/m 6,4 km/h (2 Bft) 100,00 %
02.01.2023 20:42 8,4 C 7,8 C 5,0 C 95 % 1023,5 hPa 0,0 l/m 0 min 0 min 0 W/m 9,7 km/h (2 Bft) 100,00 %
02.01.2023 20:44 8,4 C 7,8 C 5,0 C 95 % 1023,6 hPa 0,0 l/m 0 min 0 min 0 W/m 6,4 km/h (2 Bft) 100,00 %
02.01.2023 20:46 8,4 C 7,8 C 5,0 C 95 % 1023,6 hPa 0,0 l/m 0 min 0 min 0 W/m 6,4 km/h (2 Bft) 100,00 %
02.01.2023 20:48 8,4 C 7,8 C 4,4 C 95 % 1023,6 hPa 0,0 l/m 0 min 0 min 0 W/m 9,7 km/h (2 Bft) 100,00 %
02.01.2023 20:50 8,4 C 7,8 C 4,4 C 95 % 1023,6 hPa 0,0 l/m 0 min 0 min 0 W/m 6,4 km/h (2 Bft) 100,00 %
02.01.2023 20:52 8,4 C 7,8 C 4,4 C 95 % 1023,7 hPa 0,0 l/m 0 min 0 min 0 W/m 6,4 km/h (2 Bft) 100,00 %
02.01.2023 20:54 8,4 C 7,8 C 4,4 C 95 % 1023,8 hPa 0,0 l/m 0 min 0 min 0 W/m 12,9 km/h (3 Bft) 100,00 %
02.01.2023 20:56 8,4 C 7,8 C 4,4 C 95 % 1023,8 hPa 0,0 l/m 0 min 0 min 0 W/m 6,4 km/h (2 Bft) 97,87 %
02.01.2023 20:58 8,4 C 7,8 C 4,4 C 95 % 1023,8 hPa 0,0 l/m 0 min 0 min 0 W/m 6,4 km/h (2 Bft) 100,00 %
02.01.2023 21:00 8,4 C 7,8 C 4,4 C 95 % 1023,9 hPa 0,0 l/m 0 min 0 min 0 W/m 9,7 km/h (2 Bft) 100,00 %
02.01.2023 21:02 8,4 C 7,8 C 5,0 C 95 % 1023,9 hPa 0,0 l/m 0 min 0 min 0 W/m 12,9 km/h (3 Bft) 100,00 %
02.01.2023 21:04 8,4 C 7,8 C 4,4 C 95 % 1023,9 hPa 0,0 l/m 0 min 0 min 0 W/m 12,9 km/h (3 Bft) 100,00 %
02.01.2023 21:06 8,4 C 7,8 C 4,4 C 95 % 1023,9 hPa 0,0 l/m 0 min 0 min 0 W/m 9,7 km/h (2 Bft) 100,00 %
02.01.2023 21:08 8,4 C 7,8 C 4,4 C 95 % 1023,9 hPa 0,0 l/m 0 min 0 min 0 W/m 6,4 km/h (2 Bft) 100,00 %
02.01.2023 21:10 8,4 C 7,8 C 4,4 C 95 % 1023,9 hPa 0,0 l/m 0 min 0 min 0 W/m 9,7 km/h (2 Bft) 100,00 %
02.01.2023 21:12 8,4 C 7,8 C 4,4 C 95 % 1023,9 hPa 0,0 l/m 0 min 0 min 0 W/m 9,7 km/h (2 Bft) 100,00 %
02.01.2023 21:14 8,3 C 7,2 C 4,4 C 95 % 1023,9 hPa 0,0 l/m 0 min 0 min 0 W/m 3,2 km/h (1 Bft) 97,87 %
02.01.2023 21:16 8,3 C 7,2 C 4,4 C 95 % 1024,0 hPa 0,0 l/m 0 min 0 min 0 W/m 6,4 km/h (2 Bft) 100,00 %
02.01.2023 21:18 8,3 C 7,2 C 4,4 C 95 % 1024,0 hPa 0,0 l/m 0 min 0 min 0 W/m 3,2 km/h (1 Bft) 100,00 %
02.01.2023 21:20 8,3 C 7,2 C 4,4 C 95 % 1024,0 hPa 0,0 l/m 0 min 0 min 0 W/m 3,2 km/h (1 Bft) 100,00 %
02.01.2023 21:22 8,3 C 7,2 C 4,4 C 95 % 1024,0 hPa 0,0 l/m 0 min 0 min 0 W/m 0,0 km/h (0 Bft) 100,00 %
02.01.2023 21:24 8,3 C 7,2 C 4,4 C 95 % 1024,0 hPa 0,0 l/m 0 min 0 min 0 W/m 6,4 km/h (2 Bft) 97,87 %
02.01.2023 21:26 8,2 C 7,2 C 4,4 C 95 % 1024,1 hPa 0,0 l/m 0 min 0 min 0 W/m 3,2 km/h (1 Bft) 97,87 %
02.01.2023 21:28 8,2 C 7,2 C 4,4 C 95 % 1024,2 hPa 0,0 l/m 0 min 0 min 0 W/m 3,2 km/h (1 Bft) 97,83 %
02.01.2023 21:30 8,2 C 7,2 C 4,4 C 95 % 1024,2 hPa 0,0 l/m 0 min 0 min 0 W/m 6,4 km/h (2 Bft) 97,87 %
02.01.2023 21:32 8,1 C 7,2 C 4,4 C 95 % 1024,2 hPa 0,0 l/m 0 min 0 min 0 W/m 6,4 km/h (2 Bft) 95,74 %
02.01.2023 21:34 8,1 C 7,2 C 4,4 C 95 % 1024,2 hPa 0,0 l/m 0 min 0 min 0 W/m 0,0 km/h (0 Bft) 95,74 %
02.01.2023 21:36 8,1 C 7,2 C 4,4 C 95 % 1024,3 hPa 0,0 l/m 0 min 0 min 0 W/m 3,2 km/h (1 Bft) 97,87 %
02.01.2023 21:38 8,1 C 7,2 C 3,9 C 95 % 1024,3 hPa 0,0 l/m 0 min 0 min 0 W/m 6,4 km/h (2 Bft) 97,87 %
02.01.2023 21:40 8,0 C 6,7 C 3,9 C 95 % 1024,3 hPa 0,0 l/m 0 min 0 min 0 W/m 6,4 km/h (2 Bft) 97,83 %
02.01.2023 21:42 7,9 C 6,7 C 3,9 C 95 % 1024,4 hPa 0,0 l/m 0 min 0 min 0 W/m 6,4 km/h (2 Bft) 97,87 %
02.01.2023 21:44 7,9 C 6,7 C 3,9 C 95 % 1024,4 hPa 0,0 l/m 0 min 0 min 0 W/m 3,2 km/h (1 Bft) 95,74 %
02.01.2023 21:46 7,9 C 6,7 C 3,9 C 95 % 1024,4 hPa 0,0 l/m 0 min 0 min 0 W/m 6,4 km/h (2 Bft) 97,87 %
02.01.2023 21:48 7,8 C 6,7 C 3,9 C 95 % 1024,5 hPa 0,0 l/m 0 min 0 min 0 W/m 3,2 km/h (1 Bft) 95,74 %
02.01.2023 21:50 7,8 C 6,7 C 3,9 C 95 % 1024,5 hPa 0,0 l/m 0 min 0 min 0 W/m 3,2 km/h (1 Bft) 95,74 %
02.01.2023 21:52 7,8 C 6,7 C 3,9 C 95 % 1024,5 hPa 0,0 l/m 0 min 0 min 0 W/m 6,4 km/h (2 Bft) 93,48 %
02.01.2023 21:54 7,8 C 6,7 C 3,9 C 95 % 1024,6 hPa 0,0 l/m 0 min 0 min 0 W/m 9,7 km/h (2 Bft) 93,62 %
02.01.2023 21:56 7,8 C 6,7 C 3,9 C 95 % 1024,6 hPa 0,0 l/m 0 min 0 min 0 W/m 3,2 km/h (1 Bft) 35,48 %
02.01.2023 21:58 7,7 C 6,7 C 3,9 C 95 % 1024,6 hPa 0,0 l/m 0 min 0 min 0 W/m 3,2 km/h (1 Bft) 95,45 %
02.01.2023 22:00 7,7 C 6,7 C 3,9 C 95 % 1024,6 hPa 0,0 l/m 0 min 0 min 0 W/m 9,7 km/h (2 Bft) 95,74 %
02.01.2023 22:02 7,7 C 6,7 C 3,9 C 95 % 1024,7 hPa 0,0 l/m 0 min 0 min 0 W/m 3,2 km/h (1 Bft) 95,74 %
02.01.2023 22:04 7,7 C 6,7 C 3,9 C 95 % 1024,7 hPa 0,0 l/m 0 min 0 min 0 W/m 3,2 km/h (1 Bft) 93,48 %
02.01.2023 22:06 7,7 C 6,7 C 3,9 C 95 % 1024,8 hPa 0,0 l/m 0 min 0 min 0 W/m 3,2 km/h (1 Bft) 95,74 %
02.01.2023 22:08 7,7 C 6,7 C 3,9 C 95 % 1024,8 hPa 0,0 l/m 0 min 0 min 0 W/m 3,2 km/h (1 Bft) 97,87 %
02.01.2023 22:10 7,7 C 6,7 C 3,9 C 95 % 1024,8 hPa 0,0 l/m 0 min 0 min 0 W/m 6,4 km/h (2 Bft) 97,87 %
02.01.2023 22:12 7,6 C 6,7 C 3,9 C 95 % 1024,9 hPa 0,0 l/m 0 min 0 min 0 W/m 6,4 km/h (2 Bft) 97,87 %
02.01.2023 22:14 7,6 C 6,7 C 3,9 C 95 % 1025,0 hPa 0,0 l/m 0 min 0 min 0 W/m 6,4 km/h (2 Bft) 95,65 %
02.01.2023 22:16 7,6 C 6,7 C 3,9 C 95 % 1025,0 hPa 0,0 l/m 0 min 0 min 0 W/m 6,4 km/h (2 Bft) 100,00 %
02.01.2023 22:18 7,6 C 6,7 C 3,9 C 95 % 1025,0 hPa 0,0 l/m 0 min 0 min 0 W/m 6,4 km/h (2 Bft) 100,00 %
02.01.2023 22:20 7,6 C 6,7 C 3,9 C 95 % 1024,9 hPa 0,0 l/m 0 min 0 min 0 W/m 9,7 km/h (2 Bft) 100,00 %
02.01.2023 22:22 7,6 C 6,7 C 3,9 C 95 % 1025,0 hPa 0,0 l/m 0 min 0 min 0 W/m 6,4 km/h (2 Bft) 100,00 %
02.01.2023 22:24 7,5 C 6,7 C 3,9 C 95 % 1025,0 hPa 0,0 l/m 0 min 0 min 0 W/m 3,2 km/h (1 Bft) 97,87 %
02.01.2023 22:26 7,5 C 6,7 C 3,9 C 95 % 1024,9 hPa 0,0 l/m 0 min 0 min 0 W/m 3,2 km/h (1 Bft) 100,00 %
02.01.2023 22:28 7,5 C 6,7 C 3,9 C 95 % 1025,0 hPa 0,0 l/m 0 min 0 min 0 W/m 3,2 km/h (1 Bft) 100,00 %
02.01.2023 22:30 7,4 C 6,7 C 3,9 C 95 % 1025,0 hPa 0,0 l/m 0 min 0 min 0 W/m 6,4 km/h (2 Bft) 100,00 %
02.01.2023 22:32 7,4 C 6,7 C 3,9 C 95 % 1025,1 hPa 0,0 l/m 0 min 0 min 0 W/m 3,2 km/h (1 Bft) 100,00 %
02.01.2023 22:34 7,4 C 6,7 C 3,3 C 95 % 1025,1 hPa 0,0 l/m 0 min 0 min 0 W/m 3,2 km/h (1 Bft) 97,87 %
02.01.2023 22:36 7,4 C 6,1 C 3,9 C 95 % 1025,1 hPa 0,0 l/m 0 min 0 min 0 W/m 3,2 km/h (1 Bft) 97,87 %
02.01.2023 22:38 7,3 C 6,1 C 3,9 C 95 % 1025,1 hPa 0,0 l/m 0 min 0 min 0 W/m 6,4 km/h (2 Bft) 100,00 %
02.01.2023 22:40 7,3 C 6,1 C 3,3 C 95 % 1025,1 hPa 0,0 l/m 0 min 0 min 0 W/m 3,2 km/h (1 Bft) 100,00 %
02.01.2023 22:42 7,3 C 6,1 C 3,3 C 95 % 1025,2 hPa 0,0 l/m 0 min 0 min 0 W/m 0,0 km/h (0 Bft) 100,00 %
02.01.2023 22:44 7,3 C 6,1 C 3,3 C 95 % 1025,2 hPa 0,0 l/m 0 min 0 min 0 W/m 3,2 km/h (1 Bft) 100,00 %
02.01.2023 22:46 7,3 C 6,1 C 3,3 C 95 % 1025,2 hPa 0,0 l/m 0 min 0 min 0 W/m 3,2 km/h (1 Bft) 95,74 %
02.01.2023 22:48 7,3 C 6,1 C 3,3 C 95 % 1025,1 hPa 0,0 l/m 0 min 0 min 0 W/m 0,0 km/h (0 Bft) 97,87 %
02.01.2023 22:50 7,2 C 6,1 C 3,3 C 95 % 1025,1 hPa 0,0 l/m 0 min 0 min 0 W/m 0,0 km/h (0 Bft) 97,87 %
02.01.2023 22:52 7,2 C 6,1 C 3,3 C 95 % 1025,1 hPa 0,0 l/m 0 min 0 min 0 W/m 3,2 km/h (1 Bft) 95,74 %
02.01.2023 22:54 7,2 C 6,1 C 3,3 C 95 % 1025,1 hPa 0,0 l/m 0 min 0 min 0 W/m 6,4 km/h (2 Bft) 97,87 %
02.01.2023 22:56 7,2 C 6,1 C 3,3 C 95 % 1025,2 hPa 0,0 l/m 0 min 0 min 0 W/m 3,2 km/h (1 Bft) 95,65 %
02.01.2023 22:58 7,2 C 6,1 C 3,3 C 95 % 1025,2 hPa 0,0 l/m 0 min 0 min 0 W/m 3,2 km/h (1 Bft) 97,87 %
02.01.2023 23:00 7,2 C 6,1 C 3,3 C 95 % 1025,2 hPa 0,0 l/m 0 min 0 min 0 W/m 3,2 km/h (1 Bft) 97,87 %
02.01.2023 23:02 7,2 C 6,1 C 3,3 C 95 % 1025,2 hPa 0,0 l/m 0 min 0 min 0 W/m 3,2 km/h (1 Bft) 95,74 %
02.01.2023 23:04 7,2 C 6,1 C 3,3 C 95 % 1025,2 hPa 0,0 l/m 0 min 0 min 0 W/m 3,2 km/h (1 Bft) 97,87 %
02.01.2023 23:06 7,1 C 6,1 C 3,3 C 95 % 1025,2 hPa 0,0 l/m 0 min 0 min 0 W/m 6,4 km/h (2 Bft) 95,74 %
02.01.2023 23:08 7,1 C 6,1 C 3,3 C 96 % 1025,2 hPa 0,0 l/m 0 min 0 min 0 W/m 6,4 km/h (2 Bft) 95,74 %
02.01.2023 23:10 7,1 C 6,1 C 3,3 C 96 % 1025,2 hPa 0,0 l/m 0 min 0 min 0 W/m 3,2 km/h (1 Bft) 97,87 %
02.01.2023 23:12 7,1 C 6,1 C 3,3 C 96 % 1025,3 hPa 0,0 l/m 0 min 0 min 0 W/m 9,7 km/h (2 Bft) 97,87 %
02.01.2023 23:14 7,1 C 6,1 C 3,3 C 96 % 1025,3 hPa 0,0 l/m 0 min 0 min 0 W/m 3,2 km/h (1 Bft) 95,65 %
02.01.2023 23:16 7,1 C 6,1 C 3,3 C 96 % 1025,3 hPa 0,0 l/m 0 min 0 min 0 W/m 3,2 km/h (1 Bft) 97,87 %
02.01.2023 23:18 7,0 C 6,1 C 3,3 C 96 % 1025,3 hPa 0,0 l/m 0 min 0 min 0 W/m 3,2 km/h (1 Bft) 95,74 %
02.01.2023 23:20 7,0 C 6,1 C 3,3 C 96 % 1025,4 hPa 0,0 l/m 0 min 0 min 0 W/m 6,4 km/h (2 Bft) 97,87 %
02.01.2023 23:22 7,0 C 6,1 C 3,3 C 95 % 1025,4 hPa 0,0 l/m 0 min 0 min 0 W/m 0,0 km/h (0 Bft) 95,74 %
02.01.2023 23:24 7,0 C 6,1 C 3,3 C 95 % 1025,4 hPa 0,0 l/m 0 min 0 min 0 W/m 0,0 km/h (0 Bft) 97,87 %
02.01.2023 23:26 6,9 C 6,1 C 3,3 C 95 % 1025,5 hPa 0,0 l/m 0 min 0 min 0 W/m 0,0 km/h (0 Bft) 97,83 %
02.01.2023 23:28 6,9 C 6,1 C 3,3 C 95 % 1025,5 hPa 0,0 l/m 0 min 0 min 0 W/m 0,0 km/h (0 Bft) 95,74 %
02.01.2023 23:30 6,9 C 6,1 C 3,3 C 95 % 1025,5 hPa 0,0 l/m 0 min 0 min 0 W/m 0,0 km/h (0 Bft) 93,62 %
02.01.2023 23:32 6,9 C 6,1 C 3,3 C 96 % 1025,6 hPa 0,0 l/m 0 min 0 min 0 W/m 0,0 km/h (0 Bft) 93,62 %
02.01.2023 23:34 6,9 C 6,1 C 3,3 C 96 % 1025,6 hPa 0,0 l/m 0 min 0 min 0 W/m 0,0 km/h (0 Bft) 93,62 %
02.01.2023 23:36 6,9 C 6,1 C 3,3 C 96 % 1025,6 hPa 0,0 l/m 0 min 0 min 0 W/m 0,0 km/h (0 Bft) 91,49 %
02.01.2023 23:38 6,9 C 6,1 C 3,3 C 96 % 1025,7 hPa 0,0 l/m 0 min 0 min 0 W/m 0,0 km/h (0 Bft) 93,48 %
02.01.2023 23:40 6,9 C 6,1 C 3,3 C 96 % 1025,8 hPa 0,0 l/m 0 min 0 min 0 W/m 0,0 km/h (0 Bft) 95,74 %
02.01.2023 23:42 6,9 C 6,1 C 3,3 C 96 % 1025,7 hPa 0,0 l/m 0 min 0 min 0 W/m 0,0 km/h (0 Bft) 93,62 %
02.01.2023 23:44 6,9 C 6,1 C 3,3 C 96 % 1025,8 hPa 0,0 l/m 0 min 0 min 0 W/m 0,0 km/h (0 Bft) 95,74 %
02.01.2023 23:46 6,9 C 6,1 C 3,3 C 96 % 1025,8 hPa 0,0 l/m 0 min 0 min 0 W/m 0,0 km/h (0 Bft) 95,74 %
02.01.2023 23:48 6,9 C 6,1 C 3,9 C 96 % 1025,8 hPa 0,0 l/m 0 min 0 min 0 W/m 0,0 km/h (0 Bft) 93,62 %
02.01.2023 23:50 6,9 C 6,7 C 3,9 C 96 % 1025,8 hPa 0,0 l/m 0 min 0 min 0 W/m 0,0 km/h (0 Bft) 93,48 %
02.01.2023 23:52 7,0 C 6,1 C 3,3 C 96 % 1025,9 hPa 0,0 l/m 0 min 0 min 0 W/m 0,0 km/h (0 Bft) 95,74 %
02.01.2023 23:54 7,0 C 6,7 C 3,9 C 96 % 1025,9 hPa 0,0 l/m 0 min 0 min 0 W/m 0,0 km/h (0 Bft) 93,62 %
02.01.2023 23:56 7,1 C 6,1 C 3,9 C 96 % 1025,8 hPa 0,0 l/m 0 min 0 min 0 W/m 0,0 km/h (0 Bft) 95,74 %
02.01.2023 23:58 7,0 C 6,1 C 3,9 C 96 % 1025,9 hPa 0,0 l/m 0 min 0 min 0 W/m 0,0 km/h (0 Bft) 95,74 %
_ Min-Zeit 23:26 22:36 22:34 02:00 03:44 - - - - 12:36 21:56
Minimum _ 6,9 C 6,1 C 3,3 C 88 % 1011,3 hPa - - - - 0,0 km/h (0 Bft) 35,48 %
_ Max-Zeit 02:08 01:54 01:48 10:30 23:52 09:30 00:00 00:14 13:08 07:58 00:18
Maximum _ 13,7 C 13,3 C 8,3 C 96 % 1025,9 hPa 0,4 l/m 0 min 5 min 85 W/m 38,6 km/h
S (5 Bft)
100,00 %
Durchschnitt _ 10,5 C 9,7 C 6,1 C 93 % 1017,1 hPa #6,2 l/m #0 min. #8:15 h 36 W/m 12,5 km/h (3 Bft) 96,98 %
© 2023 W. Hausmann